GFSNGP_sfc_rhum_000.txt.gz
RH
75 70 75 75 80 81 89 83 89 70 80 67 64 63 73 71 72 72 69 72 76 82 72 70 77 86 87 81 82 91 93 92 90 87 90 95 94 93 89 88 84 87 83 67
90 88 90 94 84 86 86 87 89 84 87 64 62 81 80 77 76 79 80 81 84 77 78 80 83 85 82 81 86 92 92 94 92 91 85 87 89 91 91 91 89 94 79 68
89 92 92 76 67 83 80 74 73 74 58 68 82 79 75 72 86 88 91 81 73 65 69 74 81 85 83 84 91 93 80 64 70 70 74 81 85 90 86 76 71 66 65 70
98 91 97 60 60 54 66 62 58 67 68 75 80 78 76 85 89 90 82 76 70 63 66 80 78 79 85 81 77 68 70 77 77 71 68 67 64 63 66 63 61 64 70 79
98 95 82 67 59 69 72 66 61 73 78 81 71 81 80 89 88 86 84 78 74 76 77 80 82 68 59 61 62 69 82 86 82 67 67 67 68 66 64 64 66 75 80 80
99 99 97 69 59 61 77 88 80 76 68 64 78 94 81 85 85 81 68 68 74 76 79 81 81 67 57 72 69 66 72 68 64 69 73 74 68 67 65 71 74 76 74 78
94 99 90 70 63 64 89 81 70 71 74 80 89 95 91 85 72 58 66 71 73 77 81 83 80 61 58 57 63 66 66 66 69 74 75 67 69 71 75 80 82 91 93 92
98 98 95 66 71 78 72 79 72 74 83 95 92 91 85 76 67 60 68 75 71 78 83 83 75 55 60 72 59 64 68 69 72 77 70 62 74 75 72 82 92 93 97 96
84 86 68 58 67 62 66 80 86 93 90 93 91 86 77 76 67 60 72 72 77 84 87 86 73 65 94 85 66 67 70 70 74 76 71 66 74 77 79 86 96 96 95 93
82 76 79 71 64 74 89 94 92 92 93 89 83 87 79 77 65 61 70 78 82 89 92 91 87 87 72 64 68 70 71 72 76 79 80 75 74 72 80 96 98 96 95 94
92 77 80 79 94 94 91 91 90 84 82 75 77 81 79 73 77 80 84 80 85 93 93 88 85 84 72 66 70 71 70 72 79 83 86 84 77 78 91 95 95 93 95 96
86 77 94 87 90 90 86 84 81 77 79 73 78 72 78 75 79 86 86 85 89 94 90 87 78 69 71 69 75 78 76 84 96 97 97 91 81 82 72 76 72 68 70 82
86 74 79 89 80 74 74 70 66 70 73 67 71 79 83 86 87 84 87 90 89 85 81 71 73 75 72 87 93 93 95 94 98 92 97 97 97 96 98 84 76 71 75 73
71 81 94 84 78 64 60 60 65 65 68 74 78 79 87 91 89 90 90 79 72 72 70 78 77 76 83 89 95 96 96 96 97 97 98 98 99 98 99 99 100 96 85 76
89 89 89 74 66 62 59 62 66 70 75 84 84 88 92 93 93 89 75 74 79 81 79 87 90 90 92 91 90 94 96 97 96 98 98 98 98 98 98 99 98 98 95 91
89 83 72 63 65 63 63 66 68 74 84 88 91 92 93 95 94 85 72 78 96 92 95 97 94 96 91 90 94 96 93 95 95 97 98 98 98 98 98 98 98 97 98 99
83 70 71 77 76 75 70 66 72 82 87 90 90 94 94 97 99 93 90 95 97 97 97 98 97 81 89 89 92 99 98 97 98 97 98 99 98 98 99 100 98 97 100 99
67 66 65 68 72 78 80 73 80 84 86 88 96 98 96 98 97 94 94 98 97 97 98 98 100 91 94 89 94 95 96 99 98 98 98 99 99 99 100 100 99 99 98 97
66 67 71 76 81 85 85 83 85 85 93 93 95 98 97 94 96 97 98 98 99 99 95 97 89 84 93 98 96 98 97 99 98 98 100 100 99 99 100 100 100 99 100 98
67 68 74 77 80 89 86 85 88 88 86 95 92 98 94 92 97 98 98 97 95 95 93 88 88 94 98 98 96 97 98 100 99 100 100 100 100 100 100 100 100 100 100 99
76 77 83 86 87 85 89 89 91 90 85 94 95 92 93 95 97 98 98 98 92 96 88 86 95 98 99 98 98 98 98 98 100 100 100 100 100 100 100 100 100 100 99 99
81 87 87 88 90 88 85 89 91 91 91 93 90 95 97 98 98 98 96 96 97 91 93 95 96 95 98 94 97 98 98 98 99 100 100 100 99 100 100 100 100 100 100 99
85 89 88 91 90 88 88 89 90 92 92 92 94 97 98 96 98 100 99 95 98 96 96 98 95 95 96 96 98 98 98 98 98 99 100 99 98 98 100 100 100 100 100 100
88 89 89 89 92 95 95 88 90 91 93 93 95 98 98 99 99 98 98 97 96 96 97 98 96 96 98 98 98 98 98 98 98 99 100 100 100 99 100 100 100 100 100 100
90 91 92 96 96 95 93 92 93 94 96 96 96 96 97 98 97 97 98 97 97 99 97 94 94 100 99 98 98 98 98 98 98 99 100 100 100 100 99 100 99 99 100 100
90 91 93 94 94 93 93 94 97 95 96 96 97 98 99 99 99 96 94 91 99 99 98 97 98 98 100 98 98 97 98 98 98 98 98 98 98 98 97 97 98 98 97 96
96 99 98 96 94 94 96 89 94 97 97 98 98 98 99 99 99 96 95 96 97 97 96 97 98 98 98 99 99 100 99 98 98 98 97 98 98 97 97 97 97 97 97 97

GFSNGP_sfc_rhum_003.txt.gz
RH
64 61 65 64 65 66 70 68 81 63 60 51 49 53 50 54 52 53 53 58 66 62 55 56 63 69 65 61 65 72 71 71 73 77 76 83 66 61 59 61 65 70 75 68
85 75 73 84 68 70 70 71 72 68 70 50 51 52 58 56 56 58 66 73 65 67 64 61 64 65 65 62 72 75 66 60 58 58 54 55 60 64 62 56 49 50 50 50
81 83 82 78 56 68 62 60 57 64 46 52 52 60 54 54 59 80 77 74 67 57 59 60 64 66 61 63 69 62 55 55 60 63 54 49 46 44 46 49 48 47 48 51
97 90 85 50 49 48 56 53 50 52 53 56 57 54 56 70 80 84 84 74 56 51 58 63 60 58 60 58 55 53 55 63 64 56 46 47 48 48 48 46 48 48 54 57
98 86 75 57 50 54 61 50 51 59 61 59 57 62 68 82 85 83 83 71 54 54 61 64 58 60 47 46 47 49 56 61 52 49 49 51 49 48 48 48 49 52 50 52
99 99 94 66 46 50 56 71 60 60 64 66 65 96 75 86 82 77 67 55 51 56 62 60 57 61 46 48 55 56 58 54 47 51 51 49 49 48 48 48 49 52 54 54
92 95 82 62 56 54 86 89 73 62 65 73 83 97 94 86 81 63 57 52 53 60 60 57 61 64 54 51 58 64 55 52 48 48 50 50 47 48 47 47 64 79 83 79
95 97 94 54 57 84 77 81 73 73 83 96 95 89 80 74 66 59 56 50 53 61 59 60 62 54 48 59 65 69 54 52 48 48 50 46 47 47 47 54 71 81 84 79
82 80 60 54 62 69 76 82 90 94 89 91 89 74 60 65 62 61 57 50 56 59 61 64 66 51 65 64 70 58 56 53 49 50 50 48 47 50 51 54 69 73 67 73
83 73 61 65 74 84 90 88 85 82 85 77 70 64 66 63 62 59 52 56 58 64 63 70 62 60 65 64 54 54 54 53 52 54 55 54 53 54 53 68 70 68 70 71
88 71 72 75 82 80 88 89 85 78 71 69 67 63 62 64 62 58 61 63 66 69 70 72 64 66 56 51 53 51 53 53 58 62 63 59 59 56 63 69 71 72 69 71
88 72 87 87 91 89 85 80 71 61 61 58 59 60 62 62 61 67 70 68 68 66 74 71 65 58 56 56 56 59 60 60 68 70 68 61 56 57 62 70 72 67 69 77
80 79 87 86 75 67 62 57 56 57 50 55 52 64 64 66 68 76 67 66 63 59 59 60 58 57 60 78 82 83 79 80 71 74 69 68 70 73 76 69 73 71 72 70
76 83 82 71 70 57 55 50 53 50 48 52 57 61 66 70 73 70 68 66 65 56 63 61 63 67 75 77 84 88 86 91 78 70 73 75 79 78 78 82 87 83 74 73
83 79 75 62 55 52 52 53 56 54 49 53 56 66 68 72 74 75 72 68 66 66 61 66 72 73 74 77 82 83 82 73 83 83 82 86 83 79 80 81 83 81 75 70
73 58 59 64 61 59 61 62 60 54 50 54 64 70 70 78 86 88 80 75 84 80 80 93 92 82 79 73 73 76 76 85 86 80 80 80 78 79 77 81 80 83 80 81
70 69 67 65 64 66 66 65 65 62 64 67 74 82 84 92 91 92 89 89 94 96 96 96 90 70 78 72 68 72 80 76 94 77 79 82 82 81 81 84 85 84 85 88
59 60 64 67 69 72 75 75 80 79 78 75 85 91 92 95 98 96 93 95 96 96 95 93 93 80 82 78 82 85 87 87 84 83 85 86 84 80 84 85 84 84 85 83
54 56 61 63 68 76 77 76 79 81 85 87 91 89 90 93 92 92 95 98 97 96 88 90 85 77 78 87 82 89 91 92 86 83 87 93 88 81 85 88 86 87 86 85
60 62 68 68 72 80 83 83 87 86 84 88 90 91 95 89 87 95 96 96 91 85 88 84 82 84 90 92 89 85 92 93 89 90 94 95 95 92 90 88 88 89 91 90
71 74 82 86 86 86 90 90 92 91 87 90 96 93 93 91 96 97 96 91 87 93 89 83 80 81 83 82 79 89 94 94 93 93 94 95 95 92 92 90 90 92 91 91
74 84 87 88 90 88 87 91 90 93 93 93 92 92 94 97 99 97 95 92 83 95 82 79 79 84 84 88 79 92 92 92 92 94 94 95 94 95 94 93 92 92 92 91
78 82 84 91 91 86 90 92 92 94 94 93 95 94 95 96 96 96 95 90 87 94 84 90 94 88 89 96 94 93 92 91 91 91 94 94 94 95 94 93 93 93 92 90
81 84 85 88 93 95 94 82 88 90 93 93 94 93 96 98 97 93 90 94 95 98 95 95 96 93 98 98 96 94 93 92 91 92 94 97 95 95 94 95 94 91 92 93
88 88 89 94 93 88 90 87 90 85 84 86 92 91 93 92 98 96 98 98 98 94 91 97 93 99 100 99 97 91 93 95 95 95 95 96 95 95 94 94 94 93 92 91
84 83 85 91 89 89 90 89 90 88 90 91 89 100 100 96 96 97 96 92 90 93 95 96 94 94 96 96 97 96 94 94 95 94 95 94 94 94 94 93 93 93 93 91
88 96 90 85 81 80 86 92 97 94 92 93 97 100 97 97 100 98 97 94 93 93 92 92 92 94 94 96 96 95 95 94 95 93 94 94 94 94 94 94 93 93 93 94

GFSNGP_sfc_rhum_006.txt.gz
RH
40 36 35 40 40 36 40 46 61 49 37 32 32 33 36 39 39 39 40 48 49 48 49 45 42 43 45 46 43 48 47 44 50 48 46 44 44 43 42 40 34 34 35 36
60 46 40 50 40 37 41 42 43 43 44 33 33 37 42 43 43 44 52 52 54 57 50 36 37 45 48 40 43 50 46 48 45 45 42 41 40 39 36 35 34 36 37 38
85 60 63 85 52 38 38 40 40 51 38 39 42 46 46 46 48 60 62 62 64 55 34 37 42 51 40 37 43 48 45 43 45 46 40 38 33 30 34 38 40 41 41 42
99 92 92 46 33 34 40 37 32 33 40 45 44 44 39 55 66 82 77 55 46 38 35 38 42 39 38 36 40 43 44 43 45 42 38 33 33 34 37 38 40 41 43 44
100 74 54 43 38 42 45 44 39 46 49 49 45 43 49 73 82 72 63 50 43 37 35 38 42 38 39 39 38 40 42 46 44 40 38 33 34 37 38 40 41 42 44 46
92 99 92 48 38 39 42 56 51 62 76 77 56 84 86 68 74 64 44 39 35 31 34 40 44 40 43 42 41 40 44 48 40 39 37 34 38 40 40 39 41 45 54 55
90 99 69 41 44 44 83 80 68 79 82 82 85 87 82 74 55 36 34 33 31 29 30 37 39 42 48 40 38 35 40 42 40 38 34 36 38 39 40 41 52 76 88 75
96 99 96 43 44 83 65 72 82 78 72 73 72 74 57 42 35 31 32 30 27 30 32 34 36 43 44 35 30 36 41 42 42 38 34 33 39 41 42 47 61 79 90 84
67 67 42 42 52 53 67 79 71 76 64 68 64 48 38 35 31 30 31 28 27 32 37 35 34 41 40 33 36 45 43 44 42 39 38 38 41 46 46 47 68 73 60 65
73 54 46 51 49 60 71 78 76 72 56 50 48 39 35 32 31 33 28 29 33 35 36 39 39 48 44 44 46 48 45 43 41 41 43 43 44 45 43 60 71 59 59 58
72 59 55 51 66 77 76 82 77 52 47 41 35 34 31 31 31 29 30 34 36 37 39 36 37 56 51 54 49 42 41 42 44 48 50 50 45 43 52 59 66 65 61 64
94 70 69 76 75 76 82 69 48 44 38 32 31 32 30 30 30 31 35 39 37 39 43 41 41 46 52 47 51 53 52 48 54 61 60 55 45 46 70 70 69 66 68 74
75 70 69 73 73 59 50 44 40 36 33 35 33 29 31 35 34 44 38 39 42 49 49 49 55 62 54 71 78 83 71 71 62 67 60 58 60 62 65 59 70 70 69 67
67 70 74 61 60 50 44 37 40 35 34 33 30 34 36 37 39 39 42 49 54 54 55 54 56 69 64 62 68 88 79 87 69 63 63 67 70 71 68 71 74 70 63 61
68 64 59 52 46 40 36 36 40 34 31 36 35 40 44 45 46 51 56 62 63 63 54 50 66 66 58 65 62 62 67 65 82 81 79 79 77 73 70 69 68 67 60 55
54 49 44 44 40 36 35 32 34 39 40 38 42 48 48 50 52 61 73 80 89 80 70 94 98 72 66 59 55 53 60 79 79 73 74 73 71 71 68 68 66 68 64 67
61 59 50 44 33 34 37 39 42 42 52 52 61 76 67 77 87 82 79 90 100 98 99 100 94 61 63 57 59 56 61 64 85 67 69 71 74 73 70 71 71 69 69 80
40 36 34 36 39 44 51 52 60 64 66 66 90 92 92 92 93 95 97 100 100 97 98 93 91 66 68 57 66 64 72 76 75 76 73 78 76 73 75 74 69 70 72 71
34 34 38 42 48 56 58 59 68 79 91 94 96 95 95 94 94 97 96 100 100 98 84 95 86 78 63 78 73 67 80 86 78 71 79 80 82 77 77 80 77 76 74 70
36 39 47 52 59 71 81 82 95 85 80 89 95 96 98 96 97 99 100 100 98 82 91 83 80 80 85 76 82 64 79 91 81 84 87 83 84 85 83 81 82 78 80 80
53 55 79 92 89 95 94 94 94 92 88 95 97 96 97 99 100 100 100 93 90 100 92 85 79 60 58 65 66 85 92 95 93 91 88 84 84 84 85 87 85 81 81 81
54 77 99 95 92 88 91 94 92 97 96 95 93 94 97 99 100 99 100 98 89 90 79 79 68 74 62 88 68 97 86 88 89 91 91 87 84 85 85 86 86 85 80 82
58 65 75 93 95 79 88 96 97 100 97 98 97 99 96 93 92 98 94 96 85 92 86 91 86 87 88 100 100 100 98 94 93 91 92 86 84 84 84 84 84 84 83 80
62 69 72 85 97 95 95 70 83 95 100 98 95 93 96 99 99 90 98 99 95 95 99 100 96 88 87 100 100 100 98 97 95 97 91 89 90 86 85 84 85 83 83 83
86 80 79 96 87 68 66 68 80 81 81 86 92 89 97 92 100 99 100 100 95 99 100 97 88 88 100 100 100 94 90 92 94 94 93 94 92 90 86 84 85 85 83 84
68 64 62 70 74 67 67 69 80 80 83 94 91 95 99 100 100 99 100 100 99 96 100 100 100 100 100 100 99 96 92 87 90 88 89 88 88 88 86 86 85 85 86 85
68 83 74 73 66 68 72 74 90 92 94 100 97 96 94 100 100 99 99 100 100 100 100 100 100 99 98 100 94 94 94 92 88 88 86 87 88 87 87 88 87 86 86 87

GFSNGP_sfc_rhum_009.txt.gz
RH
32 25 24 26 28 26 26 29 46 42 32 28 27 30 31 31 32 34 36 41 45 43 42 41 38 30 32 37 38 35 37 35 39 39 38 39 40 37 36 34 31 30 32 33
51 29 27 35 27 25 25 29 30 29 32 25 27 28 32 40 41 39 44 50 51 41 36 32 29 30 32 37 33 35 38 37 36 38 44 43 38 36 32 32 32 34 35 36
73 52 58 83 46 27 27 27 34 46 34 27 32 40 46 49 43 51 57 60 48 40 34 31 28 30 36 31 31 33 34 34 34 42 47 40 34 28 30 33 35 37 37 36
96 90 92 39 26 26 30 29 26 26 28 34 45 44 44 49 53 56 56 53 40 36 32 27 24 25 33 31 30 32 33 33 36 42 44 37 32 30 32 34 36 37 39 41
99 66 49 36 35 36 41 41 29 38 43 47 45 44 48 54 54 57 52 40 33 28 24 23 22 25 30 31 33 33 36 33 35 42 45 37 32 33 34 35 37 38 40 48
93 98 90 48 32 33 35 57 46 51 57 70 54 74 50 53 51 48 36 27 25 24 24 22 22 23 26 27 29 38 35 30 35 36 39 37 34 36 35 34 36 43 51 54
86 97 65 34 37 37 67 72 58 61 69 63 66 59 57 53 40 28 24 23 23 22 22 22 23 25 26 25 29 32 33 32 38 40 38 34 34 34 34 36 48 68 84 71
88 99 91 36 38 73 53 51 61 68 73 68 56 51 44 34 29 25 22 21 20 21 23 24 22 24 25 24 26 33 34 40 45 44 36 30 36 34 37 41 54 72 93 85
60 58 36 42 49 49 49 62 67 81 76 70 46 39 34 30 26 24 21 18 18 20 25 24 23 23 25 37 45 52 59 57 62 45 37 31 34 36 39 42 56 73 58 68
65 44 39 47 47 56 63 70 72 76 59 42 40 34 30 27 26 22 18 18 18 23 25 28 28 28 31 47 53 50 58 54 46 40 40 37 33 35 38 53 65 59 60 58
60 44 42 40 61 62 63 65 67 48 39 39 32 30 28 26 22 21 22 22 25 28 28 30 31 35 35 46 47 54 56 45 45 43 42 41 38 40 47 56 64 61 60 64
76 51 64 65 62 59 58 60 44 40 36 31 29 28 25 24 25 24 26 28 26 27 31 34 39 42 48 49 56 57 58 50 53 56 52 50 43 44 70 71 66 64 64 73
50 56 64 72 67 57 47 40 38 35 33 30 26 24 25 28 28 36 29 29 32 37 41 46 51 50 52 63 66 73 66 61 55 58 55 54 60 66 68 65 74 69 69 67
56 66 83 73 63 44 41 35 38 29 25 24 24 26 27 28 30 30 33 36 39 47 54 51 51 55 61 53 58 69 67 77 68 64 64 68 71 75 71 74 76 70 81 64
64 68 78 68 42 36 32 28 27 24 25 28 26 29 32 36 39 41 40 42 54 67 58 52 58 58 52 60 59 51 55 66 79 83 82 78 81 78 75 72 68 66 65 58
65 52 44 40 34 28 24 25 28 30 29 30 37 47 45 46 47 50 55 56 80 82 79 91 92 78 62 58 54 48 44 76 76 76 77 76 75 75 72 72 67 67 68 66
57 54 45 42 29 28 28 30 32 34 45 44 51 66 66 75 82 69 70 80 100 100 100 96 94 70 64 59 53 48 53 64 78 72 76 73 75 78 75 76 75 69 74 82
38 35 28 28 30 33 39 45 50 50 55 58 90 97 97 97 93 93 92 94 100 100 99 86 89 71 64 57 58 58 68 80 79 82 77 84 81 73 80 78 76 72 73 71
28 26 28 29 34 46 52 52 51 67 93 100 100 99 98 98 92 89 93 99 100 100 85 89 90 81 63 66 69 64 78 84 84 79 80 79 87 83 85 86 83 81 76 73
28 28 32 36 48 64 72 71 96 74 69 83 100 99 98 94 97 99 100 100 97 91 100 80 79 76 73 62 82 62 79 88 82 88 92 83 87 88 89 84 85 84 86 85
42 43 55 84 84 98 100 99 100 90 81 100 100 98 95 96 92 95 99 86 77 100 96 85 80 69 56 60 66 90 93 94 92 89 90 91 88 88 89 89 91 88 89 86
44 58 99 100 94 82 85 90 85 100 100 100 99 100 91 94 94 97 99 98 83 95 97 85 78 76 62 78 64 98 85 86 89 92 91 93 94 87 90 89 89 89 87 87
45 48 61 93 100 74 80 92 100 100 100 100 100 98 96 88 88 92 91 82 96 100 99 94 90 86 83 100 100 100 99 93 91 92 93 94 91 88 90 89 88 88 87 85
52 54 59 72 92 95 94 67 68 79 100 99 100 100 96 95 98 83 96 97 98 100 100 100 97 88 88 100 100 100 100 100 99 100 94 90 100 93 88 89 89 87 86 86
70 68 69 92 82 69 56 51 62 70 76 72 83 85 96 85 99 95 100 100 99 100 100 99 98 90 99 100 100 100 100 97 96 98 94 98 96 98 93 88 87 88 88 86
57 57 53 55 59 57 59 62 69 73 77 90 89 99 100 100 98 98 100 99 100 99 100 100 100 100 100 100 100 100 97 90 92 90 89 88 88 89 89 88 89 88 89 91
54 69 60 64 59 58 62 66 86 90 88 100 98 100 92 100 100 96 98 100 100 100 100 100 100 100 100 100 100 99 97 96 89 87 86 85 88 86 85 85 87 89 90 90

GFSNGP_sfc_rhum_012.txt.gz
RH
33 27 25 26 26 25 27 30 49 41 29 26 31 30 39 40 39 39 41 42 45 49 46 40 40 36 35 38 43 46 44 42 50 49 49 53 58 54 54 52 45 46 46 49
59 28 31 37 31 29 26 25 25 30 33 26 30 38 43 45 44 47 48 50 49 45 40 36 36 34 32 34 41 49 52 50 46 48 49 56 61 58 53 50 47 49 51 52
80 56 64 89 56 28 28 26 30 50 36 36 43 45 44 46 48 53 51 49 49 40 38 35 30 28 29 31 39 49 49 45 55 65 61 60 54 48 45 50 53 56 56 54
95 90 87 37 27 27 32 28 26 26 34 42 46 45 42 50 54 53 50 49 43 36 32 29 28 27 29 25 28 30 36 48 66 62 58 50 52 49 51 50 55 56 59 60
100 71 52 40 34 40 46 46 31 42 48 49 47 45 52 51 48 50 47 41 31 26 27 27 25 26 27 28 26 28 28 53 63 58 49 55 52 51 52 53 57 59 59 67
100 94 82 54 32 34 36 65 50 54 59 62 51 80 59 49 46 40 29 25 24 24 22 23 26 26 27 27 28 30 50 51 60 64 56 58 57 52 52 53 53 70 75 76
92 90 74 37 34 36 65 77 60 61 62 65 72 71 52 44 36 26 24 22 24 21 23 25 24 26 28 28 30 38 51 54 71 84 71 70 54 50 52 56 68 89 91 88
88 98 88 35 37 69 63 60 59 58 69 82 81 62 40 33 29 25 23 20 18 21 24 26 24 27 28 31 35 48 57 56 57 60 59 45 52 54 55 60 76 87 88 87
68 73 47 42 48 53 67 72 79 72 75 65 69 42 35 32 29 26 20 19 20 22 26 27 26 26 33 38 42 51 53 59 60 60 51 46 51 55 58 64 84 86 77 79
71 46 38 43 46 56 60 63 64 61 55 56 42 39 33 31 28 24 21 22 23 27 27 30 29 33 41 44 50 52 56 58 57 54 53 50 48 52 61 84 90 81 79 80
58 43 41 49 58 63 62 66 60 52 41 38 35 33 31 28 27 26 25 27 28 30 32 35 34 42 44 46 55 56 58 58 65 72 69 60 51 65 81 85 81 86 87 88
78 52 62 64 64 62 61 67 60 39 37 32 31 29 26 29 29 28 31 30 29 32 37 38 43 47 48 51 58 71 77 73 75 78 79 69 64 64 73 75 64 63 63 86
50 50 60 68 60 59 59 51 37 36 33 28 24 26 28 29 29 38 31 34 37 39 46 53 56 55 53 67 73 78 79 77 74 79 79 82 83 82 86 81 76 71 71 72
52 62 71 67 76 51 40 36 39 29 23 26 27 27 29 34 36 38 40 43 43 44 55 61 62 62 67 65 70 83 80 80 86 84 91 90 85 84 85 88 90 88 89 82
60 63 68 67 58 43 34 29 26 25 28 30 30 34 40 43 46 48 50 51 56 61 60 61 70 77 66 75 72 73 70 78 91 90 94 93 90 90 89 87 86 83 88 81
60 62 61 58 38 32 26 26 29 33 32 35 42 58 51 51 52 58 64 65 85 86 85 86 92 83 81 69 66 67 66 76 82 84 91 91 92 90 87 90 86 86 90 94
68 65 49 43 34 29 30 32 35 41 47 48 67 75 70 77 89 78 76 82 88 92 95 98 95 75 83 73 74 67 76 80 81 86 86 94 91 90 92 92 92 88 90 95
49 44 35 30 31 35 47 61 65 65 69 72 89 94 96 96 91 89 89 89 90 90 94 97 92 87 87 72 75 79 86 84 89 94 93 93 94 89 88 91 91 93 93 93
33 29 30 30 35 58 65 68 67 81 89 91 96 94 93 93 92 90 89 88 91 90 80 95 94 91 85 75 76 83 85 88 89 90 92 94 92 92 93 93 94 93 91 94
30 30 38 40 52 74 80 78 90 83 77 84 95 95 93 92 91 88 90 93 86 86 89 98 96 93 84 77 88 79 85 89 89 89 92 93 92 93 95 91 92 94 93 94
61 61 63 86 88 91 100 98 95 93 86 95 98 97 95 89 86 89 91 82 75 89 99 99 98 94 79 79 80 88 90 92 93 92 92 92 93 91 94 94 93 93 95 95
62 67 86 90 91 86 88 92 89 98 99 97 97 96 90 89 87 84 84 89 81 94 95 97 98 95 83 82 79 98 95 90 92 92 93 93 93 95 95 95 95 93 93 95
67 64 68 84 90 80 83 96 95 100 100 98 97 96 93 86 90 96 89 83 91 99 96 99 96 93 90 94 100 96 98 93 90 88 90 92 92 92 92 95 96 95 94 93
67 65 68 74 89 93 91 80 82 89 99 99 99 97 95 96 97 87 84 87 92 99 100 99 99 95 93 97 99 96 94 96 93 92 91 90 92 92 92 91 94 94 94 93
77 74 74 86 83 81 79 74 76 80 85 84 88 81 89 93 98 88 94 96 97 99 99 98 98 98 100 97 92 94 95 94 93 95 93 92 92 92 92 92 93 93 94 95
70 68 66 70 69 67 70 70 76 80 86 93 90 94 97 100 98 98 97 96 97 98 99 100 100 100 99 98 96 95 95 95 93 92 92 93 94 94 92 93 94 95 95 94
70 79 70 70 67 67 70 71 82 95 97 100 96 94 93 95 94 96 96 100 99 99 100 100 100 99 98 99 98 98 98 96 92 90 93 95 95 96 95 96 95 94 94 96

GFSNGP_sfc_rhum_015.txt.gz
RH
50 40 38 39 40 38 39 45 65 55 50 44 58 57 56 54 52 56 58 57 58 58 57 53 50 49 46 45 48 59 60 61 67 71 65 71 75 69 74 58 50 49 51 55
73 52 52 57 50 46 40 40 40 43 47 49 53 53 55 58 60 60 57 58 58 57 50 46 43 38 37 43 51 60 63 53 69 77 76 79 81 83 67 56 49 51 56 59
90 73 83 79 65 45 42 41 45 62 56 59 61 60 71 69 63 62 62 60 59 54 49 39 40 39 42 39 40 42 37 56 78 79 80 82 74 73 53 52 54 56 63 65
93 82 71 59 42 42 48 45 44 56 63 62 62 69 69 63 64 64 62 58 55 54 40 38 38 37 38 36 37 40 58 61 74 76 82 79 83 69 53 53 54 64 71 75
97 94 64 52 47 54 59 62 64 70 68 66 59 62 72 58 61 64 58 55 47 36 35 35 36 34 36 37 37 40 61 65 72 78 81 82 78 56 52 54 70 75 79 80
99 94 86 66 47 44 51 86 70 72 80 79 72 93 86 60 55 55 37 34 32 32 30 34 34 34 37 38 42 61 70 68 80 90 93 91 96 81 60 61 76 83 83 85
94 93 83 63 46 47 76 74 81 76 81 85 89 87 77 63 47 36 35 30 31 30 33 35 34 35 38 43 54 60 66 68 68 79 86 85 82 64 61 74 87 93 89 89
90 90 95 52 49 63 70 80 77 78 87 88 88 84 77 46 38 36 32 27 27 34 37 36 34 40 45 52 53 61 64 67 71 72 67 57 63 62 70 83 85 92 94 94
79 82 62 54 58 66 73 81 86 82 82 84 79 79 51 43 41 36 30 32 32 37 38 38 40 46 55 59 62 67 69 70 72 70 62 60 64 71 79 83 93 95 90 96
79 64 57 52 72 72 78 82 80 74 73 66 68 54 47 42 39 37 35 36 38 39 41 47 47 52 59 60 66 69 73 74 73 77 77 71 67 73 87 96 96 90 93 94
75 63 61 75 78 78 76 72 67 64 62 49 48 46 40 41 40 40 39 39 40 45 49 51 58 61 59 60 69 74 78 80 86 87 84 78 73 79 94 85 88 93 96 95
85 69 73 86 80 72 74 73 64 58 45 43 37 38 39 40 42 43 46 48 49 51 53 63 66 68 64 61 72 80 82 88 93 94 94 86 86 89 78 78 71 65 66 91
69 76 81 80 71 64 73 68 53 44 45 37 38 39 40 45 49 56 52 52 57 58 60 70 74 78 73 80 78 86 84 86 95 94 97 96 96 97 96 89 81 79 73 74
74 76 85 76 80 61 55 48 47 37 38 41 41 43 51 53 56 58 59 64 62 71 73 73 75 74 82 81 82 90 86 90 95 97 98 98 87 84 96 98 99 94 85 82
78 78 79 76 66 58 46 38 37 42 44 48 48 60 60 66 67 68 69 68 77 81 78 79 82 70 75 89 87 80 86 92 96 96 97 93 96 97 97 96 97 96 96 94
78 73 73 74 65 44 37 42 47 52 55 54 62 70 72 74 73 76 81 84 89 88 88 92 93 91 88 85 84 80 88 86 92 96 95 95 98 97 96 98 98 97 97 98
82 83 77 59 46 45 47 52 55 59 62 64 71 79 82 87 94 93 90 90 93 94 92 92 92 87 87 85 89 83 97 96 93 96 96 96 98 97 98 98 97 98 98 98
54 47 43 43 49 57 64 70 66 71 70 77 89 94 98 100 96 94 94 92 81 84 84 85 86 94 93 86 84 92 96 94 94 98 97 98 97 98 95 97 98 98 98 97
37 42 46 53 62 66 66 70 75 80 90 90 95 94 95 96 96 96 87 81 79 81 78 84 93 98 98 95 90 95 94 95 96 94 95 98 99 98 96 98 98 98 97 98
49 54 55 53 60 66 76 77 91 88 86 92 94 100 98 97 96 88 81 80 84 80 81 92 96 98 98 98 92 93 93 95 96 96 98 99 98 98 97 97 96 99 99 98
59 59 61 77 86 89 94 97 98 96 90 96 100 98 96 95 92 89 90 90 80 90 93 95 99 96 97 99 95 94 94 94 97 98 98 98 98 98 97 96 97 98 99 99
67 69 80 85 89 84 88 91 91 96 99 98 100 99 100 98 94 93 90 90 87 98 95 96 99 94 98 99 96 94 94 95 96 96 98 98 98 98 98 98 96 97 98 98
72 72 74 86 87 79 85 96 95 96 96 97 97 94 99 95 93 96 95 89 93 92 90 96 98 98 98 99 94 97 98 100 97 94 92 92 92 96 94 95 95 96 97 95
79 74 74 79 90 95 90 82 88 90 93 94 95 98 98 98 91 95 95 91 89 90 91 97 98 98 99 99 98 97 96 96 94 97 96 92 95 95 97 97 94 94 95 95
84 75 78 90 87 87 88 88 90 91 91 93 98 95 93 96 98 92 94 92 92 95 95 94 98 98 99 98 98 98 97 97 96 97 97 96 95 95 97 98 98 97 96 96
79 90 90 81 87 87 86 89 91 90 96 99 99 97 96 98 96 97 94 93 95 96 97 96 99 99 99 98 98 96 96 97 97 97 97 96 92 92 93 96 95 97 98 97
85 90 92 91 92 93 93 97 99 98 100 100 99 97 97 94 95 95 93 95 94 95 97 97 99 98 98 98 98 97 96 96 97 97 98 97 96 96 96 96 97 98 98 98

GFSNGP_sfc_rhum_018.txt.gz
RH
52 50 47 48 47 46 46 55 68 58 60 59 66 67 64 64 65 63 62 61 61 62 64 57 54 47 45 48 53 58 57 62 78 80 76 77 83 88 89 83 82 61 54 59
71 60 68 59 59 56 51 46 48 49 76 63 63 66 71 69 65 64 62 60 62 61 57 55 46 43 42 43 44 49 52 78 76 78 80 82 86 89 91 89 59 51 59 66
73 78 78 75 59 51 48 50 49 60 66 68 72 74 78 73 66 64 68 66 61 58 57 44 42 40 39 40 42 47 68 70 79 80 84 88 89 90 86 84 66 64 67 66
80 72 60 58 48 46 51 63 68 69 70 68 73 78 73 66 66 66 64 59 56 53 41 41 38 36 40 38 41 56 69 73 77 82 85 86 90 90 88 70 65 67 77 81
77 88 55 55 50 53 52 60 70 74 74 70 75 74 78 61 62 62 60 49 44 38 37 38 36 36 39 42 47 69 72 74 79 85 88 92 96 97 94 79 72 83 82 80
99 72 61 52 55 49 51 82 74 76 82 78 71 93 86 67 60 54 41 36 33 32 36 37 36 38 43 50 64 70 73 73 75 86 91 93 94 94 92 71 80 80 80 86
99 93 81 58 54 52 73 65 82 81 84 83 85 81 76 76 49 42 35 30 35 37 38 39 40 46 52 58 64 66 68 70 72 74 79 82 84 78 74 87 86 93 86 87
97 98 81 58 55 63 65 84 84 84 86 85 85 83 76 55 44 37 30 33 35 40 42 43 45 52 58 63 64 66 69 70 73 74 70 64 70 78 82 85 85 94 94 95
77 80 59 60 58 60 78 83 84 86 88 84 80 79 66 47 41 37 37 38 38 43 47 47 50 58 61 61 65 71 73 77 78 76 75 71 71 80 85 86 95 95 92 97
80 62 62 61 76 76 82 86 85 84 84 75 73 66 48 44 43 43 40 42 44 48 52 56 58 60 65 65 67 74 79 82 84 84 83 80 74 80 86 97 96 92 94 95
82 67 81 82 86 84 84 81 74 68 66 66 53 44 44 44 44 46 46 48 51 58 63 63 68 72 72 73 73 78 79 81 85 90 89 84 76 83 91 85 90 95 96 95
79 62 65 78 85 80 81 77 67 64 50 44 43 42 42 47 51 52 58 58 61 65 68 70 74 76 78 79 77 81 82 86 94 97 97 89 83 80 77 81 76 73 71 91
71 69 78 83 82 75 80 69 67 50 41 44 43 44 48 53 57 65 61 63 69 71 78 82 81 83 84 88 89 97 91 86 96 95 97 97 96 97 95 88 82 81 79 75
80 79 86 83 85 75 67 58 50 42 46 47 48 55 59 61 65 67 68 71 73 77 84 81 85 89 84 82 87 94 86 90 95 97 98 98 98 91 98 99 99 97 84 84
82 83 82 80 63 55 47 41 45 48 52 54 60 63 64 69 74 75 77 78 83 88 86 84 83 88 82 88 85 91 88 96 97 98 98 96 97 98 98 97 98 98 97 97
86 81 74 69 67 49 44 50 52 57 57 58 63 68 71 79 80 84 86 88 94 92 87 86 91 87 86 92 85 91 83 92 97 97 97 95 98 98 97 98 99 98 99 98
87 91 83 64 53 56 53 56 56 58 62 65 69 76 82 86 94 91 90 93 94 91 88 86 89 79 86 94 93 91 90 84 90 92 94 95 96 97 97 99 96 98 98 99
65 70 60 60 62 68 68 70 67 69 69 72 86 94 96 99 96 95 95 95 92 84 84 84 84 87 95 98 98 96 91 88 90 93 96 99 97 97 97 96 96 100 98 99
64 65 60 56 58 61 59 60 67 80 89 92 94 93 95 97 97 96 95 95 90 84 78 85 88 92 98 98 98 99 95 95 96 97 96 97 100 98 99 97 98 98 98 99
52 60 61 56 59 60 68 67 89 87 85 94 96 100 99 97 96 96 95 94 87 80 88 90 98 89 96 99 97 98 96 93 93 95 98 99 100 99 97 98 96 98 99 100
64 62 63 76 81 87 92 93 97 95 88 96 100 99 99 95 97 97 98 95 85 89 91 98 97 90 98 95 97 98 97 95 96 95 95 96 98 99 98 97 97 97 99 100
70 72 79 83 88 81 86 89 89 94 98 97 97 98 99 98 98 96 94 93 87 94 92 96 92 92 97 98 98 98 97 94 94 94 96 98 98 98 98 97 98 97 96 99
72 75 78 87 89 79 83 92 93 95 96 95 95 94 96 96 98 100 95 89 94 92 92 92 91 93 98 99 98 98 97 97 95 94 94 94 92 93 94 95 94 94 94 95
79 74 75 80 92 94 89 79 85 88 92 92 93 93 96 98 98 96 95 96 100 97 94 92 93 94 96 98 97 98 98 97 96 96 96 97 95 93 93 92 94 95 96 95
86 79 79 92 87 88 84 85 90 92 91 91 92 96 99 98 98 94 96 97 97 94 94 92 94 94 97 98 98 96 96 96 96 97 97 97 97 97 97 96 96 98 97 97
80 91 91 83 90 92 93 95 96 98 98 98 99 98 96 98 96 94 96 93 94 96 95 86 84 87 94 97 96 97 96 96 96 96 97 97 97 97 97 95 94 95 96 98
87 94 93 93 92 92 94 98 99 93 97 99 98 97 98 98 96 96 95 97 98 94 92 91 92 89 90 93 95 96 96 97 97 96 97 97 97 97 97 97 95 97 98 98

GFSNGP_sfc_rhum_021.txt.gz
RH
61 59 51 50 46 52 57 60 64 58 60 52 68 72 72 73 73 70 67 64 64 64 61 60 57 47 45 46 47 53 56 72 76 77 79 82 83 87 92 91 87 90 75 64
76 66 70 59 49 55 53 51 60 55 72 70 69 74 76 73 71 69 64 61 59 60 59 53 44 41 40 41 45 50 64 74 79 83 86 87 91 92 93 88 74 82 63 69
58 79 72 57 62 57 52 51 50 69 62 72 78 75 79 78 71 68 62 59 60 62 58 46 42 40 39 41 46 49 69 71 79 82 83 86 90 93 94 91 90 75 72 74
76 72 53 43 53 50 51 58 70 76 76 71 76 81 78 72 71 68 64 64 60 50 42 44 40 38 42 42 47 54 71 75 80 83 86 87 93 95 90 86 81 79 84 78
77 76 50 45 55 59 59 57 72 74 76 75 82 77 80 68 67 67 65 54 46 38 40 41 38 39 43 47 52 72 75 78 78 83 91 92 94 94 97 96 80 87 81 86
98 65 52 43 60 53 51 74 75 76 82 83 82 96 87 69 65 64 44 38 34 36 38 39 40 45 49 54 66 70 74 75 77 79 83 91 92 93 91 77 82 80 76 83
100 86 72 53 56 53 66 57 83 78 80 85 86 83 73 72 68 42 34 32 38 40 42 44 46 51 56 62 66 67 70 72 76 77 79 78 83 82 81 88 84 91 84 89
98 96 68 55 61 64 64 76 78 84 83 81 76 80 84 61 44 34 33 37 41 45 48 50 52 57 60 66 63 69 74 74 76 78 76 64 73 86 84 84 86 92 94 95
74 75 57 61 64 63 71 79 86 86 87 81 85 84 80 51 42 39 40 41 44 49 53 55 58 62 66 68 68 73 79 79 80 81 79 76 74 84 87 85 94 94 95 98
76 56 63 61 62 74 81 81 86 85 84 80 78 78 56 46 47 46 44 49 51 56 61 66 66 68 75 76 76 79 82 81 82 82 85 84 75 78 85 97 97 92 97 97
84 70 76 74 75 80 86 87 82 81 78 72 79 57 47 48 49 49 52 56 59 66 72 72 75 80 79 82 83 81 79 77 82 87 88 80 76 82 86 85 89 95 96 95
73 62 70 65 79 85 88 82 76 72 62 53 45 46 47 52 54 57 61 62 67 73 75 78 85 82 82 84 87 88 91 89 96 94 95 89 88 84 76 84 81 80 78 92
63 64 71 82 87 83 80 78 72 49 41 43 44 46 52 58 60 67 63 67 74 78 80 89 88 90 87 90 92 92 94 94 96 97 94 95 96 94 89 84 81 80 78 80
72 84 90 88 89 82 77 59 50 42 45 49 51 55 59 61 67 68 70 76 79 84 90 91 91 80 84 92 92 92 91 95 98 93 94 97 97 95 97 98 99 97 85 84
86 85 82 84 82 69 43 41 50 56 57 59 59 62 64 66 70 76 82 85 89 92 92 84 73 75 78 86 94 93 91 96 94 94 98 97 96 98 98 99 98 99 98 96
89 88 83 75 53 47 53 62 65 60 59 60 64 66 67 77 82 85 88 89 95 96 89 82 86 82 84 86 92 98 95 95 93 92 95 93 94 98 99 97 99 99 100 98
91 93 76 66 69 80 86 76 60 62 65 64 64 72 77 85 94 88 90 94 97 95 92 90 86 73 83 88 98 98 98 98 94 90 90 93 97 96 97 98 98 98 98 98
76 74 78 85 96 90 72 74 70 69 68 70 91 94 95 98 96 94 95 94 97 95 92 86 84 83 90 90 97 98 99 97 97 94 92 99 98 98 98 98 97 97 97 99
87 92 85 71 65 69 64 60 64 79 92 93 94 92 95 98 97 96 97 99 97 96 86 89 90 94 97 91 92 99 97 98 97 97 96 97 98 97 99 99 97 98 96 98
81 76 69 66 64 68 77 69 89 82 82 94 97 100 99 99 98 97 98 98 93 89 90 90 91 96 96 94 98 98 98 97 97 97 97 98 99 98 98 99 99 97 98 99
78 72 69 82 81 89 90 94 94 90 85 96 100 99 98 98 98 97 100 98 87 91 91 92 90 93 91 92 94 98 98 98 97 97 96 95 96 97 97 97 96 97 98 98
70 76 85 86 87 82 86 90 87 95 96 96 97 96 98 98 98 99 95 94 91 95 96 95 94 94 92 93 96 98 98 97 97 97 96 96 96 94 94 95 97 96 96 97
79 79 79 88 88 79 87 91 93 95 94 92 93 93 95 92 94 100 98 91 94 96 97 97 97 96 94 96 97 96 98 98 98 97 96 96 95 95 94 94 91 92 94 94
73 74 76 82 94 93 88 77 84 89 94 94 94 93 95 97 96 98 96 95 98 99 98 97 96 89 90 93 94 97 97 97 98 97 96 96 97 97 96 96 94 92 90 94
82 80 81 93 86 89 85 86 92 93 94 95 96 93 94 95 98 98 97 97 100 97 98 97 89 84 83 87 93 96 95 94 96 97 97 97 96 96 96 96 96 97 97 96
83 93 93 88 93 95 94 95 97 98 93 96 96 96 95 96 97 98 98 98 96 98 99 96 95 95 94 94 94 92 87 90 94 95 96 95 95 97 96 97 97 97 97 96
94 98 95 94 91 93 95 97 97 96 92 99 96 92 96 97 97 98 98 98 98 98 98 98 96 94 94 95 95 94 93 92 90 91 93 96 96 96 96 97 97 97 97 97

GFSNGP_sfc_rhum_024.txt.gz
RH
69 67 56 49 48 60 56 58 60 56 61 49 62 69 73 77 79 76 73 68 67 67 65 60 54 48 44 45 47 52 51 68 75 82 84 87 87 89 92 94 93 82 72 65
77 72 70 63 49 52 57 58 63 64 60 54 76 79 81 78 78 76 70 64 62 60 57 52 47 43 42 42 46 52 55 75 81 81 81 84 88 92 94 95 80 86 74 75
57 76 65 59 55 56 59 58 54 64 56 78 82 79 82 84 77 73 69 63 57 56 55 47 43 41 40 42 48 52 60 72 77 80 84 87 90 94 95 92 89 87 80 80
75 72 56 44 53 57 54 55 54 67 69 76 80 84 80 78 76 75 67 59 59 55 45 46 43 40 45 45 50 54 72 75 79 83 88 90 92 93 94 89 89 84 85 82
75 74 47 34 45 61 60 54 65 66 79 81 84 78 81 76 73 72 64 62 57 45 44 44 41 42 46 49 54 72 72 78 81 84 87 87 89 92 93 95 88 84 80 83
95 64 53 42 53 56 52 74 62 70 80 86 81 93 74 74 71 68 64 45 38 38 40 41 43 47 49 52 62 70 74 76 78 82 82 84 85 88 92 83 84 80 74 80
100 81 67 48 57 56 63 60 81 74 80 89 86 79 73 75 70 65 43 35 38 40 42 45 49 52 57 62 68 67 73 76 78 79 81 82 78 82 83 90 84 91 86 87
96 91 70 53 59 63 63 71 78 82 83 80 82 79 80 72 56 37 34 40 41 45 49 53 57 60 64 69 67 70 76 81 80 81 79 75 76 86 86 87 86 93 95 95
73 74 55 57 66 65 65 62 81 82 83 76 84 87 79 53 41 43 38 42 46 48 54 59 65 67 72 73 78 81 84 85 83 76 80 79 77 84 86 86 95 94 96 98
71 54 64 64 60 64 70 72 80 84 85 80 81 86 61 57 56 46 45 47 51 56 62 69 71 75 83 83 83 89 86 85 84 77 79 83 77 77 86 97 97 89 98 97
81 70 72 66 73 64 77 83 84 85 84 82 81 70 62 52 49 45 48 55 59 64 74 74 78 84 82 85 90 89 85 86 86 87 96 83 76 85 87 86 88 94 95 96
77 56 60 58 64 83 83 86 84 84 81 64 62 51 53 56 52 54 59 61 62 69 74 76 88 89 86 89 92 95 97 95 91 95 98 93 84 88 80 85 82 81 81 93
56 66 68 73 84 84 88 85 80 66 52 48 47 53 57 55 59 66 63 63 69 75 80 90 91 92 91 90 93 96 95 92 93 98 98 98 97 94 96 85 79 82 81 80
75 83 83 88 83 88 81 63 52 45 47 54 68 61 57 59 66 65 66 71 77 83 90 92 90 87 83 85 92 95 95 96 98 98 98 98 97 97 97 98 98 96 85 81
82 86 84 88 84 56 48 44 57 73 78 78 64 64 63 64 65 75 76 80 84 88 90 88 88 85 80 87 92 93 97 98 98 98 97 96 98 98 98 98 98 97 98 96
90 89 82 65 55 64 74 83 93 98 80 75 69 68 68 75 78 77 81 85 92 93 87 93 92 82 83 87 88 94 94 99 99 98 98 96 96 98 98 98 97 98 99 97
93 86 79 94 94 96 98 98 97 87 82 74 67 70 75 78 89 84 85 93 96 96 94 95 92 82 84 88 91 95 94 97 97 98 98 97 92 98 97 96 97 96 97 97
90 91 90 95 97 99 98 92 87 78 71 75 91 94 94 97 90 91 94 94 98 96 93 91 91 87 89 93 95 94 96 98 98 96 96 98 96 96 98 99 98 97 96 96
91 96 97 96 94 88 76 65 64 80 92 93 95 92 93 96 98 96 97 99 98 96 88 90 90 93 91 90 93 97 98 98 97 97 97 98 99 97 97 98 98 97 97 97
85 82 79 72 73 73 85 81 91 84 81 94 97 98 98 97 98 100 98 98 92 90 92 92 94 95 93 90 94 96 96 97 98 97 97 97 97 96 96 98 96 96 97 98
76 68 74 84 85 90 91 94 94 90 90 96 100 100 98 95 96 99 100 98 86 92 92 95 96 96 96 97 94 97 97 98 98 97 97 97 96 96 94 94 94 94 95 96
75 81 87 89 90 84 88 92 88 95 96 96 96 98 98 95 96 97 97 96 88 95 95 97 97 98 98 99 95 96 94 94 98 98 97 97 97 96 96 95 96 96 96 95
82 80 77 89 89 82 88 91 92 95 93 93 94 94 97 95 95 100 94 90 97 95 96 98 99 99 94 92 90 95 96 96 96 96 97 97 96 96 96 96 96 96 96 96
74 77 79 86 94 93 91 88 90 91 95 94 95 95 98 98 92 97 95 97 97 96 98 97 99 95 94 92 92 94 95 96 97 95 96 95 96 95 95 96 96 95 96 96
89 89 92 94 96 97 95 94 94 94 94 92 94 97 96 97 99 92 96 97 96 97 98 98 98 98 97 96 95 95 94 93 92 91 94 96 94 95 95 94 95 95 96 96
97 98 97 96 97 92 91 90 93 88 84 86 84 84 92 94 96 97 96 96 97 97 98 98 97 97 98 97 97 97 96 95 94 93 94 93 95 95 94 94 95 96 96 96
84 84 82 83 80 80 83 83 88 90 89 90 93 89 90 89 91 90 93 97 99 98 98 97 98 97 97 97 96 95 95 94 93 94 94 94 94 94 94 96 96 97 98 97

GFSNGP_sfc_rhum_027.txt.gz
RH
54 54 46 37 43 51 43 45 52 41 44 34 35 46 51 60 64 62 60 56 52 51 50 48 49 42 37 36 36 36 38 39 53 60 60 59 59 63 67 72 71 68 66 60
59 60 58 52 44 43 50 49 46 47 46 36 42 52 59 64 64 62 58 53 49 50 52 49 46 39 37 34 35 38 40 44 57 63 59 59 65 69 70 71 67 67 69 64
59 60 52 60 50 45 45 46 43 49 37 56 59 60 55 62 63 61 58 54 50 52 48 45 39 38 34 31 36 40 42 49 58 62 60 64 63 61 62 73 71 67 63 60
73 71 60 36 45 43 45 44 42 43 45 51 52 59 60 58 62 62 58 54 50 49 45 39 34 33 35 32 37 42 45 56 59 60 62 61 62 59 61 69 68 69 64 61
78 58 42 27 36 49 56 37 43 42 49 61 66 62 60 62 59 58 57 51 48 46 38 36 32 32 34 37 39 49 52 54 56 61 61 62 59 60 62 67 70 65 61 60
78 64 61 41 33 47 43 60 43 51 64 70 63 73 49 62 62 61 54 49 40 35 34 32 34 37 40 39 44 47 52 53 56 60 62 60 64 61 59 65 63 59 58 58
82 80 59 42 41 46 54 53 55 60 62 72 67 59 57 63 64 54 46 34 37 33 33 36 40 42 43 46 48 49 55 57 57 61 62 60 60 56 56 59 66 73 74 68
89 80 70 45 49 61 56 55 55 65 66 71 63 68 66 66 57 41 33 35 36 39 40 44 46 48 45 49 50 56 60 61 61 63 61 57 60 57 58 64 69 74 87 81
63 66 51 49 57 52 56 53 53 65 63 66 73 68 62 54 40 35 36 35 35 37 45 48 51 52 53 55 62 62 63 65 61 64 62 59 59 59 59 60 68 73 69 75
67 49 54 54 50 53 52 55 55 61 61 70 69 71 52 47 44 49 49 37 42 44 46 51 55 59 65 64 63 69 69 66 61 64 64 64 63 56 58 68 71 69 74 72
71 61 58 52 58 56 56 62 63 66 70 71 72 63 52 57 52 47 42 45 45 48 56 56 57 66 65 65 73 72 71 70 72 71 70 72 71 60 62 64 68 72 71 74
73 51 53 52 48 60 67 68 69 74 75 72 60 52 50 59 64 46 49 54 51 57 58 57 66 69 70 70 73 77 76 73 76 77 79 79 76 68 77 81 82 81 81 90
56 56 56 58 60 66 71 74 76 69 58 54 53 67 76 73 61 65 54 58 59 59 63 69 72 73 67 72 76 79 77 78 77 86 81 83 85 86 84 77 78 82 85 84
67 70 72 71 77 74 58 51 55 55 65 76 81 74 69 66 66 61 56 58 64 68 70 72 72 67 67 66 72 81 80 91 86 85 85 87 86 87 87 89 91 84 80 76
83 79 82 61 49 49 55 67 83 87 89 86 75 70 65 58 56 65 74 76 72 73 71 70 68 63 61 70 72 73 76 82 87 95 98 94 94 92 89 90 90 83 80 84
70 60 69 77 79 81 81 84 94 99 99 93 75 65 60 72 81 83 71 71 83 80 71 86 88 72 72 69 70 75 77 89 90 87 92 91 91 92 88 88 86 86 84 83
84 91 96 97 96 98 99 98 96 93 89 84 80 75 77 84 84 82 78 86 93 93 91 91 87 67 75 73 75 73 75 77 86 91 95 88 89 91 89 87 87 84 85 94
92 94 96 98 98 99 98 96 93 88 81 78 90 91 91 92 88 86 88 90 94 95 90 85 85 76 80 73 77 76 83 83 86 89 90 95 91 89 92 88 82 85 84 87
94 94 92 89 86 86 82 73 72 83 93 93 92 91 91 92 89 91 96 98 97 94 78 83 85 88 79 79 84 84 93 96 89 84 89 93 95 90 93 93 89 88 84 85
79 77 74 70 70 78 86 87 90 83 78 87 92 94 94 93 96 97 99 99 93 83 82 83 86 86 87 83 91 84 96 98 90 86 91 94 95 94 94 93 91 88 90 89
69 68 74 78 79 88 92 92 94 85 85 96 98 94 97 97 95 97 98 96 80 90 85 88 86 84 82 86 86 89 90 92 91 98 99 98 96 94 95 95 95 93 92 90
74 80 90 88 84 80 85 84 84 91 91 93 93 95 96 94 95 94 94 92 76 91 87 87 86 87 86 89 81 89 90 94 96 96 98 97 95 95 96 95 94 94 95 97
78 74 79 88 91 84 85 90 94 95 96 94 96 97 96 93 94 97 92 78 84 91 91 93 95 96 96 96 98 93 91 95 95 95 95 96 95 96 97 97 98 99 99 98
80 85 87 88 93 93 95 88 86 86 94 94 93 95 97 96 88 84 88 90 88 91 97 98 97 97 96 98 95 93 93 93 91 92 90 86 91 94 98 97 93 95 97 96
95 92 91 94 90 86 80 75 77 77 76 74 78 80 83 78 95 88 90 90 90 88 96 94 94 94 95 92 93 92 92 92 92 92 91 92 93 94 93 97 99 94 96 99
82 81 80 77 78 73 72 73 79 77 80 88 84 87 86 84 83 81 81 84 87 88 98 97 95 95 94 92 92 91 91 89 90 90 91 91 91 90 92 92 93 93 98 100
78 79 74 73 70 72 76 78 85 85 85 93 94 88 85 88 88 86 85 87 89 94 96 95 94 93 93 93 92 90 90 90 90 90 91 92 91 91 92 93 93 95 97 100

GFSNGP_sfc_rhum_030.txt.gz
RH
33 34 31 27 27 30 27 25 35 18 20 12 16 18 21 29 34 38 42 42 41 40 36 33 35 34 32 33 30 26 24 25 29 34 40 41 44 44 46 49 48 46 50 55
45 40 37 36 28 25 27 25 28 21 23 16 18 22 27 36 39 41 42 41 40 38 34 33 33 33 37 30 28 26 27 29 30 38 41 43 45 47 46 46 46 47 52 50
41 42 41 73 39 27 25 27 28 31 22 20 26 30 29 33 38 39 40 40 40 36 34 33 33 37 31 26 27 29 28 29 34 42 43 42 40 41 43 47 50 52 53 53
68 69 82 21 26 26 26 23 20 22 19 22 24 30 33 31 32 39 39 40 39 35 36 33 31 29 26 23 26 29 29 31 38 41 41 39 42 44 46 46 49 52 52 52
92 44 28 14 23 27 34 22 20 21 20 26 38 40 35 36 37 38 40 39 37 34 34 31 27 26 24 25 26 28 30 34 35 39 41 41 43 47 49 46 48 51 50 52
72 89 88 29 30 34 33 35 24 30 32 36 40 47 21 34 41 42 39 38 36 35 31 27 25 25 27 27 28 30 33 34 36 40 42 43 49 51 48 46 45 45 49 53
72 91 46 25 25 36 43 35 32 36 35 42 43 28 39 39 43 40 39 37 31 27 25 27 31 32 30 28 31 29 37 41 40 39 42 44 49 48 47 46 51 60 66 58
78 97 80 30 38 46 38 35 36 35 39 46 40 48 47 46 45 43 37 30 25 33 41 39 31 32 28 26 30 39 43 42 38 41 44 42 49 48 47 49 55 63 97 81
46 44 34 34 35 34 40 42 40 42 35 46 48 46 48 48 46 36 28 27 34 41 47 38 34 32 31 31 43 46 44 44 45 48 47 46 48 50 50 49 54 60 58 66
50 28 32 33 32 31 32 37 34 34 37 39 45 46 48 42 37 32 30 49 56 47 37 36 36 38 41 45 45 46 50 49 48 51 51 48 45 53 53 56 60 58 60 62
50 37 32 31 34 36 38 40 42 41 47 49 50 51 45 39 39 47 49 46 40 38 35 36 38 41 43 47 49 50 51 52 56 56 54 49 48 53 59 55 60 63 63 66
57 43 45 40 39 45 50 49 51 54 56 56 54 47 42 49 54 53 54 50 40 42 43 43 50 49 47 48 50 55 60 59 60 61 58 56 54 56 77 78 79 78 80 85
55 51 53 53 53 55 58 54 53 52 49 48 46 53 65 67 66 70 51 49 46 47 53 53 52 57 50 53 62 66 64 62 58 67 64 62 64 71 77 74 82 85 86 84
61 60 60 59 59 50 53 55 65 70 76 79 81 80 81 81 74 68 60 47 50 52 60 66 58 50 49 53 61 66 63 79 64 66 74 80 84 83 81 90 88 85 91 77
58 60 57 52 55 63 65 71 82 93 96 97 86 73 63 60 54 51 55 69 76 75 61 52 48 45 46 60 61 60 60 61 74 88 88 82 88 86 87 91 87 82 78 82
66 64 69 74 75 83 92 94 97 100 95 80 67 60 54 56 58 61 63 61 72 61 54 88 87 63 61 57 54 56 58 76 81 70 74 77 89 90 86 88 88 86 82 74
90 96 96 96 95 96 96 86 79 74 67 60 68 70 61 72 78 70 62 68 98 100 100 99 90 53 60 59 58 58 61 63 74 69 74 70 81 83 82 87 94 89 88 96
82 86 75 78 94 98 84 76 75 75 73 74 93 100 100 100 88 86 94 98 100 100 92 81 81 64 61 60 64 71 79 82 85 92 88 86 84 84 93 91 90 91 87 83
68 68 68 64 65 66 64 58 63 73 93 96 98 100 100 100 83 82 93 100 100 97 60 69 78 83 68 69 80 92 94 98 89 86 86 86 91 92 95 99 96 98 91 82
58 56 54 56 63 66 73 71 93 69 67 85 99 100 99 100 100 100 100 99 92 79 71 70 74 75 76 74 85 77 91 97 93 96 100 95 100 100 99 93 96 100 100 100
58 59 68 67 70 90 100 97 100 83 80 98 98 97 96 100 100 100 96 86 72 86 71 78 76 72 62 70 75 91 97 98 98 94 99 100 100 98 100 100 100 100 100 100
64 70 96 92 79 74 81 76 80 92 90 89 91 92 93 86 84 83 88 90 75 82 79 81 80 80 83 97 94 100 95 90 93 99 99 100 100 100 100 100 100 100 100 100
64 68 80 91 94 78 81 79 85 87 88 86 85 84 82 76 71 83 82 66 75 81 84 91 92 96 96 100 100 100 100 98 97 97 98 97 97 99 99 99 100 100 100 100
74 76 78 78 81 73 67 56 59 62 76 74 76 82 75 83 84 64 68 75 78 84 93 93 97 95 96 100 100 100 98 90 89 90 88 87 90 88 89 93 94 99 100 99
85 78 72 73 63 57 54 53 53 53 57 56 62 60 68 64 81 79 87 87 82 83 92 89 96 96 99 98 96 94 94 90 89 89 90 90 89 89 89 88 89 89 90 96
64 62 60 60 59 55 56 54 60 59 62 70 69 76 77 75 74 78 80 80 81 81 86 89 91 92 94 92 93 93 92 89 88 87 89 88 88 87 88 88 88 88 89 92
61 63 58 57 54 55 61 63 73 74 73 83 83 79 76 80 82 78 80 85 84 85 87 89 90 89 90 92 92 91 91 91 90 87 88 88 87 88 89 89 89 88 89 91

GFSNGP_sfc_rhum_033.txt.gz
RH
22 24 22 20 19 20 20 20 29 22 12 9 9 11 13 14 18 20 27 32 33 35 36 34 34 32 29 31 36 33 35 24 25 28 30 31 35 38 39 39 39 40 39 42
41 28 27 28 22 18 17 17 15 14 16 11 14 11 15 16 19 21 26 31 32 34 34 34 33 32 30 34 36 38 29 26 27 28 28 33 37 40 39 38 38 40 41 44
36 32 32 63 36 24 18 16 19 26 18 12 16 17 18 18 22 24 26 29 32 33 34 33 31 32 34 36 35 29 26 26 27 28 32 35 33 33 35 40 42 43 44 46
56 68 81 17 16 16 21 17 14 14 13 12 14 19 21 20 21 23 25 26 30 32 33 31 30 32 32 28 28 28 27 26 25 31 33 33 34 35 39 41 44 44 47 49
89 39 24 16 14 19 22 18 16 17 16 14 20 28 25 22 21 22 23 26 29 30 31 31 30 30 28 30 23 26 26 25 25 29 32 34 35 37 39 44 45 45 43 51
56 85 87 33 22 22 23 32 20 20 20 21 22 38 24 24 24 27 28 28 31 31 31 31 28 27 29 29 32 29 25 26 28 29 33 35 38 40 42 44 42 40 42 46
64 82 46 22 21 26 41 42 28 25 24 26 29 31 36 31 28 28 28 30 32 32 32 28 26 34 45 39 34 26 25 30 31 32 34 34 38 41 44 44 47 57 65 59
71 97 79 22 26 37 38 28 26 29 28 36 35 32 37 34 32 32 33 33 32 31 27 33 49 46 41 28 22 32 38 36 34 32 31 33 43 46 45 47 53 60 96 76
41 43 29 24 25 24 27 33 31 32 30 32 34 33 31 36 36 36 33 27 25 34 55 56 48 39 28 27 44 40 38 39 38 37 39 41 44 45 45 46 54 62 66 87
40 23 23 23 24 25 27 32 31 31 33 35 37 38 37 40 37 33 26 32 53 60 60 55 36 30 35 36 38 44 44 41 41 44 46 44 44 43 44 59 65 65 72 70
39 30 28 24 31 37 40 40 39 39 40 47 46 43 43 38 34 36 46 56 59 61 51 41 34 38 35 40 46 42 41 45 51 54 53 49 43 43 51 55 67 73 75 74
55 41 48 41 44 49 47 48 47 48 47 43 42 40 40 46 54 78 80 62 59 63 54 41 41 48 46 40 41 51 56 55 64 62 59 54 50 51 65 77 80 76 77 86
51 50 50 52 45 44 51 51 50 51 49 56 56 59 71 92 95 89 78 66 56 47 49 54 56 45 45 50 57 63 60 62 61 65 57 57 60 65 72 68 83 83 81 81
51 53 60 49 53 54 62 68 77 83 86 88 84 76 79 82 74 70 62 46 44 45 46 50 59 61 46 41 50 61 62 76 62 58 61 69 68 73 78 86 91 88 90 84
51 48 52 53 54 62 66 71 72 77 80 82 76 74 68 63 56 51 46 51 58 60 57 47 40 37 34 50 53 60 59 58 66 74 80 77 79 83 81 84 86 84 80 85
63 60 61 69 77 76 72 76 83 95 75 58 50 51 47 47 47 45 44 46 61 56 50 85 88 62 60 49 48 51 50 70 74 66 73 75 80 81 81 84 86 86 86 85
94 95 94 86 71 64 64 60 59 53 52 58 65 66 58 66 64 52 53 60 91 100 99 92 89 56 64 55 49 52 59 63 78 72 78 80 86 91 83 86 86 85 90 99
67 62 58 61 78 74 61 63 65 62 63 72 93 100 100 100 88 78 86 94 100 100 86 70 68 65 62 55 55 62 70 74 81 89 88 98 90 90 89 84 83 86 89 91
55 54 55 53 52 52 50 57 66 66 93 94 98 100 100 100 87 86 91 97 97 89 59 61 76 73 62 63 73 71 84 96 93 95 93 90 96 91 92 96 94 95 90 90
49 47 47 51 58 61 66 70 87 64 68 89 100 100 96 96 100 98 91 87 80 68 70 75 75 68 69 66 74 71 83 98 95 98 99 89 96 98 100 98 98 97 100 100
50 53 62 62 72 88 100 98 99 76 72 94 91 89 90 94 94 89 85 69 58 70 70 68 65 66 71 84 85 94 100 100 100 98 97 100 100 98 100 100 100 100 100 100
57 69 100 92 70 71 75 69 76 87 86 86 87 87 86 69 74 75 81 71 62 71 68 69 66 71 74 82 83 100 97 98 100 100 98 98 100 99 99 100 100 100 100 100
62 70 82 87 93 73 69 65 89 84 81 82 79 78 73 64 59 68 72 56 64 72 74 80 81 86 87 94 97 100 100 98 100 100 94 91 89 92 94 94 93 94 97 97
66 68 72 71 71 60 55 50 48 50 74 70 72 78 67 72 74 60 63 69 72 81 84 85 92 81 81 93 94 95 96 96 96 94 93 91 90 89 89 92 91 90 89 89
73 67 64 64 53 50 48 45 43 44 50 50 57 55 63 61 76 71 78 81 75 77 83 81 80 78 90 92 91 91 94 93 94 93 93 93 92 88 88 88 88 89 90 92
62 57 55 53 52 47 49 46 55 55 58 67 66 72 73 70 70 73 73 78 76 77 81 87 87 85 87 86 88 89 91 89 90 91 92 91 91 88 85 85 86 88 90 91
57 60 52 52 48 48 56 58 69 70 68 80 78 73 68 73 78 74 75 81 83 84 84 84 86 82 82 85 86 88 89 90 90 90 90 90 89 84 83 83 85 86 88 91

GFSNGP_sfc_rhum_036.txt.gz
RH
20 19 22 24 21 18 19 23 38 31 18 14 13 16 15 17 20 19 20 27 29 32 41 41 44 44 41 41 42 43 44 42 47 42 39 42 46 48 52 54 50 52 54 57
39 27 25 29 22 21 20 17 17 16 17 12 14 16 17 17 16 18 20 22 30 34 35 39 41 41 40 41 44 44 49 46 40 39 37 43 48 53 55 55 51 53 55 57
63 34 35 59 37 27 22 18 19 27 22 16 15 14 19 21 19 23 23 24 29 33 36 40 41 43 44 40 44 49 44 42 37 37 38 46 44 44 47 53 57 59 61 60
80 74 75 23 16 15 20 16 14 14 16 15 22 21 19 19 23 24 26 26 27 32 37 38 39 40 42 38 44 42 39 38 38 36 40 42 46 47 52 54 59 62 63 63
97 60 32 22 16 19 20 21 18 19 18 16 17 23 25 22 25 26 27 27 29 31 35 38 38 38 38 38 38 39 37 37 33 36 42 47 46 49 54 56 60 62 57 62
76 90 84 37 21 19 20 47 24 24 27 26 23 54 41 32 28 30 26 29 29 33 35 38 37 36 36 36 42 43 44 39 36 42 45 44 52 53 55 56 55 57 59 65
78 95 62 24 22 23 51 56 31 30 31 33 40 41 42 37 34 28 30 35 37 36 36 37 41 44 51 60 62 54 41 44 50 53 46 45 49 52 56 59 65 75 76 75
88 100 89 22 26 41 46 38 34 33 36 44 41 38 37 32 36 34 34 35 33 47 56 54 53 55 58 54 38 48 54 52 45 46 40 36 56 59 61 64 74 76 97 90
58 64 36 25 29 27 32 35 37 40 36 38 43 39 37 39 40 37 30 37 46 56 62 60 58 51 48 42 43 44 52 56 51 48 45 45 57 62 68 67 81 85 92 93
48 25 24 24 24 32 37 43 38 38 41 46 52 48 44 42 38 45 51 56 58 62 62 58 48 42 45 44 48 54 59 55 52 56 57 58 56 60 64 82 89 91 90 85
39 31 31 39 44 49 45 46 47 44 46 46 46 44 46 51 59 64 65 62 60 61 59 53 48 47 41 43 54 56 51 52 59 64 70 66 58 60 78 76 86 90 88 92
72 47 52 58 48 45 48 50 46 46 53 50 51 62 68 76 73 73 78 73 70 66 58 48 43 45 49 49 46 56 61 65 82 90 84 72 65 65 66 78 76 79 79 87
54 49 53 51 53 58 62 61 60 62 63 71 72 76 80 86 86 87 77 72 64 52 44 48 51 51 46 59 66 73 77 78 83 83 82 76 86 88 81 76 78 84 84 84
48 51 60 52 68 65 70 72 71 67 65 67 69 72 78 78 74 67 59 46 46 47 50 52 55 58 58 56 59 71 74 80 77 77 78 88 84 83 86 87 89 85 85 86
53 52 56 57 61 67 64 61 63 70 72 72 64 63 58 54 50 49 49 44 50 50 45 44 56 59 52 66 62 67 69 72 76 79 88 93 92 89 87 88 88 86 84 88
57 56 58 66 70 66 60 65 76 84 68 56 60 60 49 47 47 48 46 70 85 87 80 94 97 85 74 64 63 62 61 71 78 79 92 89 89 88 88 89 87 87 87 90
84 90 80 77 67 64 68 66 66 66 60 67 82 88 77 82 72 76 73 85 96 97 96 92 87 66 79 64 61 64 69 72 76 82 91 89 90 91 92 95 90 92 87 89
68 66 62 62 76 76 68 66 66 73 81 89 97 97 98 98 94 90 92 87 86 83 84 80 85 79 76 69 71 75 77 78 80 85 88 94 92 92 90 87 87 95 87 87
55 60 62 60 58 57 59 70 78 87 95 98 98 96 93 91 82 82 82 88 87 78 74 75 80 69 65 67 74 76 83 85 90 90 90 89 90 91 87 87 88 92 98 98
54 52 52 61 65 74 81 87 87 80 83 88 95 93 90 85 92 94 90 87 74 79 68 68 68 64 63 68 77 74 78 83 86 93 98 93 96 93 91 90 90 95 99 98
54 60 76 81 87 97 98 98 92 77 76 94 92 94 93 88 88 86 76 70 70 70 71 73 69 79 79 80 75 78 83 85 87 91 92 94 97 98 95 94 94 96 97 98
62 84 91 87 81 81 77 73 80 92 90 92 93 92 89 70 78 76 81 78 72 80 76 73 88 82 77 85 82 89 87 91 96 97 96 96 99 97 96 94 94 94 95 96
75 80 87 90 86 76 69 68 92 88 89 88 90 86 78 71 69 76 80 69 74 80 75 82 86 83 83 88 88 90 89 94 93 94 96 96 97 97 96 96 94 94 94 94
77 77 77 76 76 65 63 54 53 61 83 78 86 90 75 79 82 72 74 78 83 86 83 86 89 85 83 88 88 89 90 93 91 93 94 94 95 95 95 94 93 92 91 92
75 73 69 73 60 58 52 48 49 52 58 58 63 61 68 69 86 82 82 84 80 84 86 81 84 87 87 87 89 90 90 92 93 94 93 94 94 94 94 94 94 92 91 90
71 66 59 56 55 52 54 52 61 62 63 74 75 81 81 81 79 79 81 81 82 81 86 86 87 91 88 86 88 89 89 89 91 90 92 93 94 93 94 93 90 89 88 88
62 68 58 60 52 53 63 65 74 76 76 88 84 83 78 82 85 81 82 84 85 86 86 86 87 87 91 87 88 87 88 88 88 92 92 93 93 94 94 93 92 88 88 92

GFSNGP_sfc_rhum_042.txt.gz
RH
37 37 39 39 36 41 37 43 51 40 42 30 30 30 30 29 32 44 49 51 55 57 60 68 72 72 74 71 68 64 59 55 66 63 60 61 64 64 66 62 56 57 60 61
52 47 41 45 37 39 37 38 41 37 42 36 33 34 33 31 32 36 38 51 60 58 64 70 74 75 78 78 73 68 66 71 71 64 55 59 61 62 62 59 57 56 55 65
68 53 49 64 45 37 37 40 36 44 38 40 42 38 36 41 40 41 42 43 53 67 68 73 75 78 83 70 66 64 59 61 59 58 61 64 57 58 55 54 53 56 66 67
82 69 70 48 35 33 41 39 34 34 38 44 47 54 49 44 46 44 46 54 62 67 70 72 65 67 65 62 60 59 60 60 58 60 60 63 66 63 69 61 63 66 68 71
75 78 57 41 28 32 42 49 44 44 45 42 49 56 56 55 59 63 60 57 57 56 56 57 58 56 54 55 54 56 59 61 63 64 67 70 82 82 71 70 67 70 70 74
93 73 69 52 36 34 40 68 46 50 56 54 55 81 74 61 60 63 60 60 64 63 64 65 63 60 62 64 65 71 73 70 70 75 82 81 76 78 76 74 70 68 68 73
97 84 69 49 35 38 46 52 51 53 54 55 66 71 65 66 68 65 65 66 63 61 60 62 60 60 62 67 70 64 65 72 83 78 75 72 76 74 71 71 74 81 83 85
96 91 66 48 40 45 55 60 58 59 65 78 71 62 65 68 69 68 70 67 62 64 61 57 52 52 56 61 60 64 74 69 69 68 64 61 73 75 74 80 86 86 92 88
74 76 59 59 54 60 61 66 73 76 75 72 67 70 74 78 79 78 74 66 50 49 53 54 54 56 66 67 61 68 70 72 73 72 71 70 76 79 84 86 92 90 93 94
67 72 73 75 72 70 68 68 66 67 65 64 72 73 75 74 72 70 61 60 58 59 62 66 62 61 64 65 67 69 73 75 77 79 76 78 80 84 90 94 93 89 93 93
90 82 72 73 71 66 65 67 69 67 68 72 75 76 73 73 70 68 69 68 66 69 71 69 65 65 64 65 68 69 74 76 78 81 82 85 86 90 90 88 89 88 91 92
86 72 78 82 75 67 70 72 71 74 78 74 72 78 82 89 89 85 80 74 74 75 69 67 67 70 71 72 74 78 79 82 86 88 90 88 88 82 81 84 83 86 86 89
81 74 78 82 77 72 78 79 77 80 81 89 86 88 90 93 91 89 84 74 73 75 74 74 76 77 81 86 88 88 91 90 90 89 88 87 86 88 89 78 84 83 83 83
73 75 86 83 93 80 80 81 81 84 86 88 92 92 90 91 84 81 82 79 79 84 90 93 96 95 90 92 91 91 91 92 93 94 94 91 89 89 89 94 94 89 87 93
79 78 82 80 76 80 78 80 86 90 91 90 86 84 76 84 93 97 95 93 92 91 90 82 81 83 73 76 69 72 79 86 85 90 91 89 88 90 83 87 95 88 92 98
83 81 79 81 81 84 82 82 87 90 87 84 87 88 86 90 89 84 82 85 86 92 88 90 81 75 82 76 80 82 85 88 90 87 84 82 82 83 83 83 86 95 96 96
93 97 90 88 86 80 82 84 82 83 88 95 96 93 85 84 83 85 86 89 94 87 85 80 81 80 87 75 68 72 77 76 81 82 87 88 81 89 90 89 88 86 95 98
82 78 75 77 85 86 85 86 88 93 93 91 90 92 95 95 92 92 96 88 91 92 80 75 85 74 68 64 75 83 88 90 88 91 85 92 88 90 95 94 95 95 92 97
74 75 78 75 75 80 83 92 96 92 92 94 93 95 95 95 84 86 88 93 93 84 75 84 80 70 62 71 86 89 88 92 90 84 88 87 90 90 93 93 94 96 97 98
74 72 74 79 80 84 91 90 92 91 84 83 90 91 88 95 95 93 92 94 77 74 74 78 71 66 64 71 89 82 90 94 88 90 92 92 92 93 91 90 93 94 95 95
82 85 90 92 95 92 87 86 86 83 75 88 89 91 92 93 93 95 92 91 78 82 74 82 81 77 68 83 82 92 94 96 92 94 94 94 93 92 91 91 92 94 95 95
86 92 95 91 88 89 86 80 84 90 88 91 93 92 92 88 96 95 96 88 78 96 91 90 86 94 84 98 89 97 94 92 95 94 94 94 94 93 92 92 92 92 94 94
92 90 89 88 85 82 79 78 90 90 90 91 91 92 93 92 91 95 96 82 90 98 95 99 99 100 98 99 100 100 100 99 98 98 96 95 95 94 94 93 93 93 93 93
93 88 85 77 82 79 76 72 68 77 90 89 92 94 90 98 99 96 94 99 100 99 100 99 100 100 99 100 100 100 100 100 100 100 98 99 96 95 94 93 93 92 91 91
87 84 75 76 69 72 76 74 74 78 83 75 76 78 91 91 95 98 98 98 100 99 99 100 100 100 100 100 100 100 100 100 100 100 100 99 96 96 95 94 93 93 91 92
83 80 76 70 73 75 79 78 86 92 90 97 96 98 99 98 95 96 98 98 98 99 99 100 100 100 100 100 100 100 100 98 100 100 100 100 98 97 98 96 94 93 92 92
74 77 77 79 78 84 86 85 92 99 98 97 94 97 98 98 98 98 100 100 100 100 100 100 100 100 100 100 100 100 100 100 100 100 100 100 100 99 98 96 95 94 92 92

GFSNGP_sfc_rhum_045.txt.gz
RH
45 37 41 41 42 48 44 46 55 46 49 38 31 31 32 30 40 56 66 66 68 67 70 76 84 88 86 86 82 72 72 75 82 71 67 66 66 70 71 65 60 58 58 64
66 48 44 46 40 43 43 42 44 44 42 41 38 41 41 42 42 46 51 61 63 65 65 75 83 90 87 84 86 81 82 77 71 67 64 70 70 70 65 60 52 62 74 65
55 59 54 65 49 41 40 41 40 46 39 42 47 44 48 49 47 48 53 62 67 79 80 86 90 90 86 81 76 75 72 68 64 65 66 68 68 69 70 81 86 83 69 69
78 72 72 44 44 39 44 46 42 42 43 49 55 61 63 60 57 66 67 65 66 73 75 79 79 76 71 68 69 67 62 62 67 71 73 72 73 83 90 89 82 75 74 75
76 78 58 47 43 42 42 48 47 49 55 59 61 62 66 65 66 69 70 70 71 69 67 64 61 62 62 67 66 66 67 67 68 72 75 84 90 94 88 80 79 79 76 80
87 76 75 57 43 36 42 64 46 55 56 58 62 77 77 70 70 73 70 69 72 70 65 65 65 65 70 72 72 75 71 69 71 80 92 95 91 79 80 81 80 80 76 78
97 84 72 50 40 39 46 49 55 57 60 62 64 74 78 74 74 70 69 65 62 63 67 67 64 64 69 70 73 71 82 92 91 84 79 77 79 80 77 79 82 86 86 87
93 81 68 48 45 42 51 67 60 62 73 80 78 77 77 74 75 70 68 67 62 64 66 62 58 62 69 78 74 76 72 70 71 72 69 66 78 81 81 85 88 88 92 90
71 72 57 67 53 64 62 61 69 76 77 71 78 80 80 82 77 71 66 61 56 57 60 58 58 59 67 68 69 72 72 74 75 75 76 77 82 83 87 89 93 91 92 90
72 74 86 84 76 75 73 77 79 78 67 70 81 81 81 77 75 73 70 62 61 60 63 66 62 63 73 72 71 72 75 77 80 83 81 82 85 86 92 94 93 88 88 86
91 87 81 77 76 75 74 73 73 72 72 75 77 77 76 78 77 76 73 68 66 68 68 68 70 76 78 83 80 81 83 85 86 88 88 86 84 86 85 85 88 82 82 87
87 76 75 82 77 74 74 78 76 78 80 74 73 79 80 87 85 77 75 69 67 70 74 79 86 93 93 92 91 92 88 90 95 94 93 90 88 83 80 84 82 84 85 88
65 68 83 82 79 76 80 80 78 78 78 84 81 84 86 89 91 82 75 78 82 89 95 97 95 90 85 90 89 82 88 91 91 88 89 91 90 90 88 75 73 79 85 85
78 77 88 85 93 83 83 83 82 84 84 88 90 88 90 88 87 89 92 92 94 94 87 84 86 77 79 82 78 84 88 91 95 94 94 93 91 87 88 88 88 80 71 80
86 82 82 85 85 87 84 84 90 93 91 92 88 85 86 93 94 94 94 88 92 86 77 74 77 84 86 81 76 79 76 79 82 89 88 89 90 90 84 85 88 90 83 78
87 84 84 88 89 88 84 85 89 91 89 86 90 93 92 84 84 88 89 89 92 89 80 93 91 86 76 65 67 73 79 88 90 89 90 89 85 81 85 87 85 92 89 86
94 97 95 95 92 87 84 77 78 80 87 92 95 83 75 81 86 90 89 87 92 90 86 92 81 64 64 62 73 85 90 85 89 85 85 86 89 85 90 94 92 90 91 93
85 82 83 82 84 85 84 84 85 86 91 92 85 90 91 91 92 91 92 92 92 89 86 78 69 60 58 65 72 81 85 90 86 86 88 92 92 89 93 91 89 90 90 87
78 81 80 76 78 82 84 87 88 90 91 90 90 92 92 94 89 86 88 91 90 84 80 72 75 66 59 71 82 84 92 94 88 86 92 93 93 92 92 92 91 91 90 92
80 78 79 82 82 86 93 92 90 88 84 87 88 88 89 95 96 96 92 89 76 74 74 74 68 66 63 67 93 83 95 99 92 92 95 94 95 95 93 93 92 92 92 92
87 87 88 88 88 89 92 88 82 72 74 90 87 92 92 95 96 96 97 93 74 82 79 80 81 81 69 86 85 98 99 100 100 98 100 98 97 95 94 94 94 94 93 93
89 93 95 86 82 84 81 76 76 86 88 90 92 93 94 91 95 94 97 88 79 97 94 93 88 95 88 100 90 100 98 98 98 100 100 98 97 97 96 95 96 94 94 92
96 95 96 95 86 81 82 82 87 86 88 90 92 93 93 91 91 96 97 84 90 98 95 99 100 100 100 100 100 100 100 100 100 100 100 100 99 99 98 97 96 95 94 93
96 96 93 83 77 72 76 77 69 76 91 90 91 95 92 97 99 95 93 100 100 100 100 100 100 100 100 100 100 100 100 100 100 100 100 100 100 99 97 98 97 95 94 93
96 87 80 78 72 72 70 74 78 76 81 78 83 88 90 90 95 98 98 99 100 99 100 100 100 100 100 100 100 100 100 100 100 100 100 100 100 99 99 98 98 98 96 94
90 80 74 72 78 79 78 81 92 92 87 93 96 100 99 97 96 95 98 99 99 100 100 100 100 100 100 100 100 100 100 99 100 100 100 100 100 99 99 97 98 97 96 95
93 94 89 85 81 80 84 88 94 97 93 95 95 98 97 98 98 96 100 100 100 100 100 100 100 100 100 100 100 100 100 100 100 100 100 100 100 100 99 99 98 96 96 95

GFSNGP_sfc_rhum_048.txt.gz
RH
48 42 44 45 47 52 50 52 56 49 52 41 39 36 35 34 54 54 73 79 77 77 83 90 94 94 95 95 93 91 88 87 92 87 77 75 74 74 78 73 66 63 71 86
65 52 50 51 46 52 51 50 49 49 47 40 45 50 49 50 55 61 68 73 83 76 72 83 90 94 94 92 88 85 89 83 74 70 70 73 71 68 67 66 69 86 90 90
57 59 54 66 50 46 46 48 44 54 44 43 51 48 55 57 58 70 76 77 80 85 90 97 96 93 95 90 84 80 77 70 70 70 68 68 66 69 72 85 94 94 93 86
79 72 67 46 49 45 47 45 43 44 46 47 52 75 74 76 75 71 72 73 76 81 81 84 81 79 76 72 72 73 74 69 67 70 73 76 82 89 94 95 96 95 85 80
75 77 57 49 44 46 44 40 46 49 64 67 70 69 76 73 75 78 80 80 77 73 72 71 72 71 71 72 71 70 66 70 74 77 81 86 89 95 97 96 90 84 80 82
86 75 72 55 46 40 38 53 49 59 68 67 68 60 76 78 77 76 74 76 73 72 72 74 75 69 69 69 68 72 73 74 78 88 96 96 96 93 86 83 83 83 81 81
96 84 75 56 43 40 49 53 55 56 62 68 62 68 84 79 78 73 71 71 69 70 74 77 73 73 82 84 86 86 93 90 80 76 76 79 81 82 81 83 85 87 87 87
90 86 77 47 46 46 51 70 62 63 66 76 88 84 82 78 75 72 72 71 68 70 73 75 76 77 84 86 80 72 69 68 70 73 72 72 82 84 82 86 89 89 92 88
72 74 60 57 51 54 58 63 65 70 76 78 84 84 80 78 71 67 67 68 66 67 69 69 68 66 70 74 72 75 76 81 84 83 82 83 84 87 88 90 92 89 90 90
69 66 74 83 78 77 78 73 79 77 73 74 84 83 83 76 72 70 70 71 68 67 72 75 70 74 79 79 80 84 88 90 90 90 89 89 90 90 94 96 94 89 89 90
79 87 86 79 78 78 82 81 76 77 78 80 81 82 78 79 77 77 77 76 70 72 75 83 86 91 92 90 85 86 85 88 88 88 91 87 87 92 89 89 95 88 87 87
70 68 63 68 79 80 81 82 78 80 83 80 76 80 79 85 83 80 76 71 70 77 89 89 86 86 87 84 82 82 84 89 96 96 95 86 86 82 71 74 74 76 76 80
55 71 86 83 82 79 84 83 80 80 78 84 82 82 84 90 87 81 77 76 88 94 94 86 79 86 88 86 84 86 91 84 87 86 86 90 88 90 93 77 69 68 68 71
77 77 87 81 89 85 84 85 83 85 85 87 88 85 82 85 84 84 86 94 91 84 82 79 86 92 80 74 76 79 79 87 91 92 96 94 97 94 87 84 87 86 74 73
86 82 79 86 86 90 88 87 93 96 94 93 85 84 83 88 90 92 96 92 79 73 77 85 87 82 71 67 65 73 78 88 91 97 96 95 90 89 90 89 90 89 83 79
90 88 86 90 94 92 89 90 94 96 91 88 85 83 78 81 87 92 90 88 77 81 86 96 79 65 61 64 70 75 74 88 88 84 87 90 89 92 87 90 89 89 89 90
98 98 97 96 94 92 90 87 86 84 84 85 86 75 79 88 92 88 84 81 91 94 88 84 72 57 57 63 71 77 82 82 87 82 88 89 91 92 92 92 92 91 91 90
82 83 83 86 89 89 87 84 86 86 89 82 78 87 91 90 90 92 89 89 95 94 79 71 63 55 56 65 68 73 87 83 84 88 88 94 93 90 94 94 92 92 91 88
80 84 84 81 80 81 84 87 88 88 86 82 83 90 93 92 85 86 82 90 93 88 80 68 74 66 58 78 73 85 95 96 91 85 91 96 96 93 96 95 94 94 93 92
81 79 80 83 82 83 88 89 84 82 81 84 89 92 95 96 93 92 90 87 75 77 74 69 67 66 64 74 88 82 96 99 94 96 99 97 100 100 100 96 94 95 95 94
89 88 90 90 90 88 89 85 87 82 79 85 87 91 92 95 94 93 94 88 74 83 76 82 76 76 70 85 88 99 100 100 100 100 100 100 100 100 100 100 98 97 96 95
88 91 94 92 90 93 87 76 78 88 90 93 92 94 95 94 95 94 96 87 77 96 90 90 85 93 87 100 90 100 98 99 100 100 100 100 100 100 100 100 98 98 96 95
91 91 94 96 95 87 78 81 90 88 89 91 92 92 90 88 89 94 95 85 88 98 92 97 98 99 100 100 100 100 100 100 100 100 100 100 100 100 100 99 97 98 98 96
97 96 94 86 85 76 73 70 66 78 91 91 93 94 90 96 100 93 92 98 99 100 99 99 100 100 100 100 100 100 100 100 100 100 100 100 100 100 100 100 98 96 96 96
95 95 94 95 92 87 70 71 78 78 83 82 86 88 89 89 96 98 97 99 98 99 100 100 100 100 100 100 100 100 100 100 100 100 100 100 100 100 100 99 99 98 97 95
95 94 94 93 88 80 80 80 90 89 85 93 95 99 98 97 95 95 98 99 98 99 100 100 100 100 100 100 100 100 100 99 100 100 100 100 100 99 100 98 98 97 96 96
93 94 92 91 90 90 90 92 94 95 94 94 95 97 95 97 96 94 100 100 100 100 100 100 100 100 100 100 100 100 100 100 100 100 100 100 100 100 100 99 98 97 96 96

GFSNGP_sfc_rhum_051.txt.gz
RH
38 32 38 39 39 47 42 44 51 41 42 32 31 29 28 33 43 47 58 61 62 61 66 71 76 79 80 82 82 82 83 80 82 78 72 69 68 76 79 76 65 69 65 78
48 42 39 42 39 42 43 40 42 38 40 31 30 32 38 46 54 58 66 68 72 71 66 75 78 78 81 78 77 74 75 78 71 72 66 72 70 65 60 79 65 82 86 82
52 48 45 64 49 44 43 41 40 47 40 35 35 39 44 51 57 62 68 71 75 77 78 79 79 79 78 74 69 67 65 64 64 64 65 67 70 76 74 85 88 92 95 96
73 68 72 40 39 36 41 39 36 36 33 33 37 55 57 59 55 62 66 69 70 70 71 70 68 68 66 61 63 62 61 62 65 72 78 77 80 91 94 93 93 93 82 77
80 63 50 37 37 40 41 30 34 35 35 47 56 54 61 64 63 66 68 66 66 64 65 64 63 62 61 59 56 58 70 73 75 79 82 88 92 93 92 80 74 70 65 64
73 71 70 51 36 36 31 44 37 38 50 58 56 55 50 64 65 68 63 61 64 64 62 62 60 56 58 59 62 68 73 78 83 79 78 82 80 67 64 62 60 58 58 61
78 81 62 46 37 38 49 44 44 44 51 56 52 52 63 66 65 60 60 62 62 60 62 62 60 62 67 71 81 73 62 60 62 61 60 59 60 60 60 58 62 68 70 65
78 89 68 46 39 46 46 46 49 52 57 62 73 74 69 65 64 61 60 59 58 64 67 67 63 60 59 60 56 53 54 58 62 63 59 58 63 63 61 62 68 69 92 73
60 63 55 47 44 43 46 46 55 55 60 69 74 70 67 67 64 60 56 57 57 59 62 59 55 52 56 60 56 62 65 66 62 58 54 51 49 51 48 49 57 63 61 68
63 54 53 56 56 60 53 51 53 52 59 65 69 69 66 62 61 59 56 56 55 58 63 70 67 68 70 70 62 61 61 59 53 50 48 46 44 46 48 58 63 60 63 66
66 61 71 64 66 59 63 69 65 60 62 65 68 66 62 62 61 59 57 57 57 65 72 77 68 67 60 56 54 54 55 51 50 52 52 48 48 53 58 58 69 70 68 69
70 51 56 47 56 68 72 68 65 69 73 67 63 64 61 63 63 61 63 62 68 72 72 69 69 66 60 55 49 48 47 48 62 60 60 55 51 50 62 66 65 66 68 76
53 67 73 78 73 68 72 71 70 68 70 72 66 63 66 70 66 71 65 71 71 71 69 72 64 57 55 56 52 53 52 54 56 61 60 62 62 61 63 59 63 66 67 68
73 68 73 72 75 75 74 75 74 71 71 73 73 71 71 72 71 72 76 76 70 66 69 66 56 54 50 46 51 57 59 78 62 64 67 67 66 68 68 73 78 72 63 66
75 75 71 78 78 81 78 78 81 84 83 81 73 72 70 71 76 84 80 70 63 66 68 58 52 51 50 54 52 55 56 60 68 71 70 73 70 71 69 72 73 70 66 64
82 80 79 81 84 84 82 82 87 91 82 77 75 73 72 78 85 82 68 63 68 73 60 82 62 53 55 53 55 53 56 76 67 65 68 69 69 72 70 73 72 74 73 75
92 97 94 92 88 87 84 83 84 82 80 76 78 77 79 85 86 79 71 77 87 85 75 71 58 47 53 54 53 54 61 61 75 63 68 69 72 73 73 76 77 76 79 80
79 80 78 81 87 90 87 86 83 80 80 78 81 88 90 88 80 79 85 87 88 83 65 58 52 50 55 53 54 61 70 66 67 72 71 77 74 71 78 78 75 77 78 73
78 82 82 80 80 82 84 85 85 86 92 94 95 95 91 90 76 78 82 91 91 80 67 60 68 56 58 66 61 68 73 76 72 69 74 78 79 74 79 81 79 81 79 80
86 84 84 85 83 86 92 92 95 95 95 95 94 92 93 95 91 90 84 78 68 70 62 62 59 58 61 67 69 63 72 79 73 78 83 78 83 85 83 78 80 83 86 85
92 88 89 92 95 97 97 97 96 95 95 93 89 92 92 91 88 88 83 72 73 77 68 72 65 64 60 66 63 80 81 81 83 83 86 88 87 83 84 86 86 86 87 86
96 96 98 97 95 96 96 95 93 95 90 94 94 93 93 88 91 91 90 74 71 86 75 75 71 81 71 79 71 85 77 76 80 85 86 88 87 87 87 87 88 88 88 88
96 96 95 96 95 93 94 92 93 90 92 93 93 92 86 81 78 81 82 75 77 88 77 83 89 91 93 89 90 90 89 84 85 87 89 90 89 89 88 88 89 89 89 88
95 95 94 93 92 85 86 86 88 89 93 91 93 92 84 90 91 83 84 89 93 91 90 92 96 97 93 92 92 93 93 89 88 90 88 98 90 89 86 89 89 88 89 88
94 95 94 95 92 92 88 84 79 76 79 80 82 80 80 79 87 88 89 89 92 87 90 99 97 92 90 92 93 94 93 94 91 92 92 92 91 91 88 87 90 91 91 90
93 91 91 92 91 89 90 88 90 86 83 90 90 94 93 90 88 86 88 89 86 90 89 95 94 91 89 88 90 90 91 90 92 92 95 93 91 89 89 88 90 90 92 91
90 91 88 89 89 90 92 91 92 92 93 94 93 93 92 93 92 87 90 90 92 92 94 96 95 95 92 92 91 90 92 92 96 93 94 95 93 92 91 91 91 91 92 92

GFSNGP_sfc_rhum_054.txt.gz
RH
20 17 16 17 18 22 25 26 30 26 21 20 17 17 18 21 24 26 28 36 42 42 46 50 57 62 63 71 76 77 79 82 83 77 71 70 70 66 69 71 69 66 74 79
31 22 21 22 19 18 21 20 24 24 24 19 18 19 22 25 30 34 42 46 47 47 51 58 60 61 65 66 67 68 74 72 68 65 63 64 62 63 68 64 62 65 78 86
37 30 30 54 35 24 22 25 26 28 23 18 21 22 23 30 35 42 48 51 53 55 56 57 60 61 62 60 58 59 60 60 58 56 59 59 58 60 66 67 78 83 86 86
49 69 83 25 24 21 23 22 21 22 20 18 19 24 32 35 40 47 50 53 54 54 56 56 54 54 54 51 52 53 53 53 54 57 58 62 71 80 84 90 86 86 82 66
81 50 31 30 30 30 31 25 19 21 19 18 30 36 43 43 40 46 49 49 50 50 52 52 51 50 49 48 49 51 54 56 57 61 65 69 67 70 73 64 56 52 48 49
61 59 82 30 21 22 24 36 18 19 22 24 34 42 26 45 48 50 47 48 50 50 49 50 49 46 48 50 52 56 60 60 57 58 64 63 57 53 50 45 43 40 41 43
62 71 42 27 24 25 40 36 23 21 23 33 38 29 40 46 49 44 46 49 49 47 48 48 46 48 52 55 62 56 51 51 51 49 48 46 45 44 44 43 48 58 60 57
62 89 77 31 29 31 27 31 27 31 30 39 39 49 48 47 47 47 47 48 47 51 52 50 48 51 51 50 46 46 46 45 44 44 40 40 45 44 40 40 44 45 74 51
47 43 33 34 26 26 29 25 33 32 32 37 51 49 48 48 48 46 44 45 46 50 51 46 43 42 44 45 43 45 45 45 45 41 36 32 32 34 30 34 42 48 46 55
54 32 34 34 26 31 29 29 29 29 35 45 47 48 49 48 47 45 42 43 43 48 49 50 44 43 45 44 42 43 44 41 36 33 30 30 27 28 32 44 48 47 52 54
48 40 39 40 35 30 36 39 38 33 39 41 45 47 47 47 46 43 42 45 44 49 52 51 48 48 44 41 39 36 35 32 33 36 33 31 30 37 44 48 60 59 59 59
56 37 46 29 32 35 38 43 40 40 45 42 42 46 45 46 44 44 47 46 49 50 50 48 48 48 42 35 31 31 30 33 47 44 44 34 30 33 67 62 62 63 65 72
39 47 46 52 48 40 43 42 43 44 43 46 43 43 45 48 47 54 48 50 52 52 54 52 48 44 36 37 35 36 34 38 43 45 42 42 43 44 46 54 57 58 58 62
49 55 52 54 47 56 52 49 55 45 46 47 46 45 49 51 54 52 54 50 50 52 52 44 38 36 35 35 39 44 47 60 43 45 44 50 49 53 53 60 68 63 52 56
55 54 57 57 58 60 55 55 57 57 56 56 56 57 56 59 57 58 56 52 52 51 44 36 34 36 36 42 36 38 40 44 53 59 61 60 59 59 58 60 63 60 56 52
54 54 59 58 58 64 61 62 62 71 69 64 62 62 58 56 61 62 54 53 56 54 40 67 49 41 43 37 35 37 48 64 58 52 56 57 57 60 58 62 61 63 63 65
70 74 72 72 67 66 64 62 64 68 67 65 66 62 61 67 67 60 60 68 76 74 67 61 47 40 44 37 33 37 41 46 64 50 54 56 60 62 61 65 67 66 69 72
56 59 60 60 67 73 74 75 74 74 71 68 75 90 88 86 89 94 88 81 81 68 50 45 43 43 41 39 38 45 51 52 56 61 59 68 63 60 67 68 66 67 69 64
63 65 68 67 69 72 74 75 74 74 87 89 90 93 95 96 92 91 86 88 84 67 54 50 61 50 47 57 47 54 60 66 60 57 63 68 74 67 71 74 71 72 69 71
80 78 77 76 75 80 88 88 91 93 94 94 96 96 96 96 94 94 88 78 60 56 50 54 47 48 50 57 54 52 65 74 62 72 78 70 78 81 77 69 71 76 80 79
96 96 97 96 96 97 96 96 96 96 98 97 96 96 95 93 90 89 84 76 70 62 57 61 52 52 48 53 48 72 76 78 78 75 77 81 82 77 78 79 79 80 82 81
97 97 98 97 96 97 97 97 95 97 96 96 96 94 94 91 92 90 82 71 70 72 61 61 58 67 60 66 58 77 70 71 74 77 78 80 81 81 80 80 81 82 82 82
96 95 95 95 96 95 95 94 97 95 95 92 93 95 91 85 75 74 76 66 68 75 66 72 81 82 80 80 79 79 78 77 78 78 80 82 81 81 81 81 81 82 83 82
92 93 94 93 92 88 89 89 84 86 93 93 93 86 77 86 86 72 71 76 81 78 80 85 86 85 80 82 81 80 80 79 80 81 78 85 81 80 79 81 80 79 80 82
93 93 92 92 87 87 85 84 81 83 84 80 78 73 72 73 81 80 81 83 83 77 81 90 86 77 82 81 81 80 80 80 80 81 79 80 79 80 81 80 80 80 81 83
86 84 84 87 86 84 85 84 86 87 86 89 88 91 89 86 85 84 86 86 82 81 81 87 85 85 82 79 79 80 79 75 78 78 80 80 79 79 80 79 81 81 82 82
85 86 81 82 84 85 86 86 86 88 87 90 88 87 84 87 88 84 88 88 87 87 87 85 82 81 79 80 78 77 78 78 79 79 81 80 80 81 81 82 83 83 83 84

GFSNGP_sfc_rhum_057.txt.gz
RH
19 16 15 16 19 18 20 21 30 24 20 16 15 14 13 14 16 16 16 21 23 25 32 39 46 50 66 73 74 74 80 83 88 84 79 78 77 77 80 78 76 72 77 76
25 18 16 18 14 13 14 15 16 16 18 13 12 12 16 17 17 19 18 21 27 30 38 47 52 54 63 70 72 74 77 73 70 66 63 65 66 68 67 67 67 71 77 84
41 22 21 38 22 16 15 15 16 22 18 14 14 14 16 16 20 22 28 31 35 38 46 51 54 57 60 61 62 62 61 59 56 56 58 59 55 55 57 63 65 70 81 75
53 65 71 26 16 16 19 16 14 14 14 14 13 12 16 18 21 30 35 40 44 46 49 49 48 49 52 49 51 53 52 51 52 54 54 56 58 62 67 68 71 72 70 70
68 50 30 20 22 22 21 19 14 16 15 14 14 23 29 27 27 35 39 41 42 42 44 45 45 44 45 46 47 48 50 51 53 58 61 60 62 64 65 68 64 54 45 44
59 57 64 30 19 16 17 34 16 15 16 16 21 36 21 31 34 38 38 38 41 42 41 43 43 42 44 46 47 50 52 54 54 54 56 57 58 54 48 43 39 35 36 39
68 61 38 20 17 16 40 37 17 15 16 18 23 23 30 34 39 36 36 38 41 40 42 42 40 42 45 48 54 52 50 51 51 48 47 46 44 40 38 38 42 54 52 49
67 73 74 27 23 30 27 24 19 20 19 24 25 37 38 38 37 37 39 41 38 42 43 43 41 44 49 50 45 44 45 44 43 40 34 34 39 38 34 34 41 44 54 49
43 43 30 30 29 23 21 21 23 23 20 23 36 38 39 38 38 39 39 37 38 42 46 46 43 42 44 44 42 44 43 42 38 34 29 27 28 31 27 31 40 47 44 53
42 33 29 27 27 27 23 23 21 22 22 26 39 38 39 38 39 39 36 38 39 45 45 45 40 38 41 41 39 39 39 36 32 29 28 24 22 24 30 43 46 45 48 52
36 26 26 26 31 33 26 25 25 24 24 28 35 37 38 39 39 36 36 38 41 42 43 42 40 41 38 36 35 32 32 28 30 30 28 28 28 33 42 55 58 57 57 56
47 26 42 36 29 30 28 27 30 28 28 31 32 36 37 39 38 36 38 40 41 44 46 44 42 39 36 33 29 29 30 32 44 44 40 28 26 42 65 62 62 64 65 70
32 31 33 32 37 32 29 27 28 31 28 33 34 35 37 39 38 46 40 41 44 46 44 42 40 36 31 30 30 32 35 39 44 45 39 38 39 41 41 68 62 65 62 58
28 36 47 39 33 37 38 31 40 32 32 33 34 36 39 40 42 42 45 45 45 46 46 41 37 37 36 32 34 39 39 65 38 39 40 45 43 48 48 55 65 62 61 52
38 36 44 46 44 43 43 44 44 40 39 41 38 40 41 44 46 47 48 48 47 45 39 32 33 33 31 40 34 38 36 38 48 56 57 57 54 54 54 55 59 58 53 55
38 38 41 48 43 45 48 50 47 56 49 45 44 45 46 46 48 52 50 50 53 48 37 63 50 43 41 31 31 37 42 64 56 49 52 53 53 55 52 57 58 59 60 59
58 57 55 54 49 50 51 50 49 54 52 51 54 56 51 56 63 58 59 66 79 82 70 60 48 40 42 33 30 33 40 45 64 45 49 51 55 58 56 61 64 63 66 70
51 52 52 51 53 59 58 59 58 61 63 60 71 88 87 81 76 85 86 87 88 85 69 67 58 44 38 35 36 42 48 49 52 58 55 64 62 56 62 65 64 63 65 60
56 57 61 57 56 58 62 66 69 78 91 89 90 93 93 92 91 92 93 95 95 90 80 77 68 46 47 55 45 53 59 60 56 54 61 68 72 65 67 71 69 69 66 68
79 77 80 83 81 85 90 88 89 90 90 91 93 95 96 96 96 96 96 94 90 86 77 61 49 51 51 56 46 51 63 71 60 64 73 70 74 78 75 68 68 72 76 76
96 96 96 96 97 97 97 97 96 97 98 97 95 96 96 97 96 96 94 89 90 75 64 59 51 49 46 48 44 70 73 75 74 72 74 77 78 75 76 76 76 76 77 77
97 97 97 97 96 97 98 97 96 96 96 96 96 96 96 94 96 95 96 88 77 68 58 58 56 63 58 60 54 72 67 67 71 74 76 78 78 79 79 77 77 77 77 77
95 94 95 95 95 96 95 95 97 96 96 96 96 96 94 92 90 89 89 80 71 73 65 74 78 77 71 78 75 75 74 73 75 76 78 80 81 81 80 77 76 77 77 76
95 95 96 96 93 89 92 93 91 92 96 95 95 94 88 90 93 84 84 82 76 74 83 83 83 78 79 79 78 77 76 77 79 81 79 79 82 82 78 77 76 75 75 75
95 95 93 94 90 91 89 86 82 82 82 82 86 85 86 85 86 83 80 82 78 78 85 83 79 72 81 84 83 79 78 80 84 81 79 83 82 80 78 76 76 76 77 78
88 88 88 88 88 84 85 81 85 85 83 88 88 90 87 82 80 80 84 83 80 78 86 88 86 83 83 80 78 77 79 76 80 83 84 79 79 78 77 74 75 76 78 78
86 84 78 78 80 80 81 81 83 86 87 90 88 87 84 86 84 79 82 83 83 81 81 80 80 80 77 81 78 79 82 81 83 79 77 79 78 78 77 77 78 78 79 80

GFSNGP_sfc_rhum_060.txt.gz
RH
25 20 19 21 21 20 20 34 56 37 24 19 17 18 18 19 19 19 18 22 25 32 40 43 50 70 72 77 78 80 86 89 93 91 90 89 87 86 86 86 84 83 86 88
38 22 20 25 21 17 17 18 18 19 21 14 14 14 14 18 18 18 17 18 23 29 38 45 66 72 77 80 80 79 85 86 84 84 80 83 82 82 81 79 78 81 86 87
50 29 26 39 25 19 17 17 18 24 20 15 15 14 17 16 18 19 21 24 27 32 44 55 66 74 76 78 76 76 75 72 72 71 74 75 70 71 74 79 82 85 89 88
65 69 61 29 20 17 19 17 14 14 13 13 13 14 18 18 20 24 28 32 35 48 61 59 62 67 70 67 68 69 65 63 63 65 64 64 66 72 76 78 84 85 85 84
75 60 39 27 22 23 24 22 16 16 14 12 13 22 28 24 28 32 37 41 45 50 54 56 58 59 59 60 57 57 59 60 58 63 67 66 72 77 79 76 79 78 72 66
86 74 70 43 25 17 20 38 19 17 20 19 20 42 28 30 32 38 39 42 46 49 50 52 52 51 53 54 56 57 58 60 62 63 64 67 69 71 70 67 54 48 49 63
80 89 57 27 23 21 42 43 25 20 21 23 29 29 35 33 38 37 39 42 45 46 48 48 47 49 52 54 57 55 57 58 60 58 60 60 61 58 54 55 66 75 73 64
82 93 87 31 25 32 35 34 30 26 27 37 40 40 37 38 40 39 39 41 42 46 48 46 45 48 51 57 54 53 56 54 52 52 45 44 54 54 49 58 66 75 72 79
67 59 42 44 37 35 37 37 34 34 26 30 44 40 39 41 41 39 39 42 41 44 48 48 45 49 54 54 50 52 52 50 46 42 40 40 47 47 48 55 67 78 74 86
55 41 43 45 39 37 35 38 28 26 25 31 43 40 41 41 40 41 40 41 40 46 50 52 49 47 49 48 48 50 49 46 42 40 36 35 30 36 55 70 79 78 83 82
48 38 39 34 31 37 42 35 32 28 32 30 38 39 40 40 41 40 40 40 43 50 53 52 48 47 45 45 46 43 43 38 40 42 40 38 45 52 72 71 80 84 83 82
59 38 47 42 30 29 33 29 31 32 35 30 37 39 38 40 40 40 42 44 48 50 50 46 46 46 45 43 39 41 38 43 66 65 57 40 46 51 70 68 68 70 68 82
29 26 36 36 36 37 40 41 36 35 35 34 36 36 37 41 42 48 43 48 48 50 49 50 49 49 43 45 42 45 56 53 66 66 62 60 64 70 80 72 64 68 66 62
25 29 38 43 48 46 46 43 43 36 36 36 37 37 41 42 45 43 46 47 48 51 50 47 43 42 41 39 49 57 56 67 59 60 62 72 70 73 76 82 88 91 70 65
29 35 43 44 44 43 43 44 49 49 44 44 44 44 44 46 47 49 50 51 49 50 46 40 40 38 39 52 43 46 51 58 70 76 79 76 75 76 76 77 81 81 77 78
51 50 39 49 47 48 48 52 54 61 55 51 51 52 49 49 51 56 54 56 59 57 48 66 56 52 56 44 46 54 62 73 70 69 70 72 75 75 72 76 78 82 85 85
64 64 64 62 57 54 53 54 55 56 58 59 66 62 52 68 69 76 69 64 69 70 65 65 57 47 57 54 53 63 62 80 80 62 67 69 74 76 75 82 84 85 89 93
57 56 58 60 62 64 60 62 63 65 73 83 85 82 83 85 87 85 83 84 86 90 84 69 59 63 63 65 67 69 79 80 71 75 69 81 77 70 81 83 82 83 88 84
73 76 76 73 70 75 83 87 88 89 90 89 91 94 93 92 91 91 89 92 94 94 95 94 93 93 89 88 86 86 85 75 70 67 71 82 87 82 86 88 87 88 84 85
86 86 87 90 88 90 95 92 92 94 91 90 90 92 95 96 96 96 96 96 95 94 95 94 92 86 83 75 66 74 83 85 70 80 88 82 89 92 90 81 85 89 91 91
97 96 96 95 96 95 95 95 94 96 97 96 94 95 96 96 95 95 95 93 95 94 91 93 88 78 60 57 62 86 87 88 87 85 87 90 91 88 91 91 91 92 91 92
96 96 97 96 95 96 97 96 95 95 95 95 96 95 95 96 96 96 96 92 92 96 92 89 82 77 70 75 67 83 76 76 82 87 88 90 91 92 91 91 92 92 94 91
95 95 95 95 95 96 95 95 96 94 95 95 96 96 95 95 94 93 94 93 93 96 93 92 82 80 79 92 91 89 86 86 87 88 90 91 91 94 91 91 92 91 91 93
95 95 96 96 93 88 93 95 94 94 96 96 96 97 94 95 96 94 94 95 96 94 91 90 88 81 85 92 91 91 90 91 91 92 92 93 95 93 94 94 93 91 94 93
94 95 95 94 92 94 93 93 91 92 92 91 92 89 90 92 93 94 92 88 90 90 90 87 85 82 91 90 91 90 90 90 92 92 90 90 90 92 90 89 94 92 95 92
91 90 89 92 92 90 89 88 92 92 86 92 92 94 94 93 90 89 90 87 86 88 91 94 93 90 90 92 90 88 90 90 89 90 93 91 90 88 89 92 94 93 95 94
88 88 85 85 85 85 88 88 88 91 93 93 93 91 92 93 90 89 92 89 91 91 92 89 92 88 88 88 85 87 86 87 92 94 91 92 92 91 92 93 93 93 91 91

GFSNGP_sfc_rhum_063.txt.gz
RH
36 28 30 31 32 28 30 38 57 52 49 40 35 26 24 23 24 27 29 37 44 49 55 89 91 90 92 95 96 94 96 97 98 96 94 93 93 93 91 90 89 89 91 94
40 33 31 32 29 33 29 27 43 45 47 27 26 22 21 23 24 22 24 30 40 48 60 82 88 92 91 94 96 92 94 96 92 93 91 90 89 89 88 87 86 90 93 93
54 38 37 53 39 31 30 28 30 46 36 26 22 20 22 25 26 26 23 24 39 51 72 83 88 88 92 90 89 91 91 88 85 85 86 86 82 81 84 87 90 94 96 94
80 64 66 41 27 27 30 25 22 20 21 20 19 21 25 24 28 28 32 36 67 65 85 85 86 89 87 80 78 79 80 79 80 81 80 79 78 86 93 92 93 94 94 94
78 66 50 37 30 33 34 33 23 22 21 20 20 35 39 32 34 43 46 59 83 80 81 84 84 81 79 78 72 73 74 77 76 76 77 80 83 81 84 86 92 95 91 79
96 88 73 54 36 31 29 44 28 32 28 29 30 47 41 39 50 56 60 67 70 73 75 80 79 75 78 78 75 74 72 72 74 73 76 78 80 78 82 89 85 67 72 76
98 99 86 49 32 34 52 52 32 32 34 34 37 42 40 54 57 56 60 64 66 66 71 71 68 68 70 69 71 68 71 72 74 73 72 72 82 80 76 73 71 78 76 79
99 98 96 50 42 42 45 42 36 35 37 44 47 50 48 54 54 55 60 63 62 66 67 63 60 62 66 69 68 68 71 72 72 70 65 64 66 69 68 72 77 80 84 88
72 83 62 60 54 49 49 46 48 45 38 50 59 53 53 57 58 56 59 63 61 64 67 64 60 59 67 68 66 70 69 69 66 58 56 55 57 62 66 72 78 82 81 85
70 59 53 49 57 59 58 57 47 36 44 49 54 52 57 59 58 56 58 60 61 64 67 70 66 62 65 65 62 63 64 58 57 53 52 49 51 58 66 78 81 82 84 87
71 53 52 48 43 56 53 54 47 41 38 43 57 55 52 57 57 53 56 58 60 65 70 72 66 65 59 59 59 55 54 49 47 51 53 61 70 67 75 84 85 83 90 86
87 64 57 47 38 47 56 49 44 50 46 40 53 53 54 57 58 57 57 61 64 70 72 65 61 62 62 57 52 52 50 50 72 67 62 55 65 66 66 73 74 72 75 84
38 34 34 38 42 47 51 52 50 54 52 49 50 56 53 57 58 65 62 67 68 70 63 63 62 63 60 60 57 63 67 64 73 71 71 69 68 72 82 76 70 67 66 63
43 48 45 42 54 55 53 55 57 54 54 50 49 54 59 60 62 65 68 66 61 58 53 50 52 58 58 57 60 65 66 78 70 69 69 75 77 83 83 84 91 91 74 68
66 63 65 56 56 54 55 57 61 64 65 62 58 61 61 62 68 71 64 56 50 48 46 45 50 50 52 60 59 67 71 77 82 85 84 83 81 84 84 87 88 88 88 83
69 68 64 70 68 62 58 62 67 72 71 70 69 68 65 64 66 65 61 58 63 66 60 70 64 59 59 56 60 68 74 83 86 87 88 91 93 92 87 86 86 89 89 91
81 86 80 81 76 75 74 75 78 85 82 81 80 77 71 73 73 74 74 69 71 70 68 72 74 73 74 82 83 85 89 91 95 93 94 92 91 90 87 89 90 90 94 94
75 80 81 84 88 89 90 90 88 88 90 87 86 87 88 87 84 84 88 87 85 88 88 90 92 92 93 95 96 96 95 96 95 96 94 95 90 82 90 90 90 91 93 87
81 86 88 88 89 90 91 92 91 90 90 90 92 94 91 90 89 92 90 93 95 95 96 95 95 95 95 96 95 95 96 96 94 89 90 89 94 92 93 95 92 92 90 93
87 86 86 89 88 90 92 90 90 92 90 89 90 92 95 96 96 95 94 95 95 95 96 95 94 94 94 95 95 94 95 95 90 94 96 88 94 97 94 89 92 96 97 97
96 96 96 95 96 96 96 96 95 96 96 95 93 95 95 96 95 95 93 92 96 95 94 95 93 93 91 94 93 96 96 95 93 93 94 97 97 96 98 97 97 98 98 98
96 96 96 95 93 95 96 96 95 95 95 95 95 94 94 95 95 95 96 93 94 96 93 93 92 94 92 96 94 96 95 96 96 96 97 97 97 97 97 97 98 98 98 97
96 95 95 94 94 96 94 94 95 93 94 94 95 95 95 95 95 93 94 95 94 94 92 94 93 94 95 96 96 95 95 94 96 97 97 98 98 98 97 97 98 98 98 100
95 94 95 95 89 84 93 96 94 94 94 95 96 96 93 94 95 94 93 94 95 94 94 92 87 85 94 96 96 96 97 97 99 98 97 92 97 98 96 98 99 99 99 99
93 92 93 91 91 94 93 91 89 89 88 90 91 91 90 90 92 95 94 95 90 90 95 90 90 94 94 94 94 96 97 98 98 99 99 99 98 99 100 99 98 98 99 100
92 91 91 92 92 90 90 88 93 93 89 93 94 94 95 94 92 92 93 92 94 95 96 98 97 96 95 93 96 97 97 97 97 97 98 98 100 100 100 97 98 99 100 100
90 90 86 86 88 88 89 87 89 94 92 92 94 94 92 93 94 92 95 93 92 93 94 94 94 94 93 93 96 98 99 100 100 100 100 100 100 100 100 100 100 100 100 100

GFSNGP_sfc_rhum_066.txt.gz
RH
33 29 30 35 37 30 35 41 59 51 55 44 40 33 34 32 25 32 34 43 46 60 94 97 97 94 77 81 79 80 92 96 99 99 98 98 98 98 98 96 96 95 96 96
49 36 28 30 30 36 36 36 40 42 44 32 28 32 34 27 25 24 30 37 47 60 91 93 98 96 98 95 96 95 98 98 97 98 96 97 97 96 95 94 93 95 97 96
75 45 36 56 43 38 37 37 42 57 47 33 30 34 32 24 25 26 28 34 52 62 85 91 96 97 97 97 94 96 97 96 94 94 95 95 91 92 91 93 94 96 96 93
97 69 72 43 32 33 36 30 27 31 35 33 30 28 28 24 24 27 28 32 50 60 85 92 94 96 97 93 93 94 92 91 90 91 92 88 87 89 93 92 93 94 94 94
100 73 56 47 36 35 34 38 30 27 24 22 22 33 37 32 31 30 34 48 59 68 93 95 95 93 93 94 94 94 91 90 85 85 86 86 90 90 90 91 94 95 93 89
100 97 74 54 37 35 37 57 33 29 30 29 34 49 43 36 47 52 65 88 92 94 93 94 94 87 89 90 89 90 88 84 79 82 86 86 87 90 88 89 92 92 80 74
99 98 88 64 53 41 54 51 44 37 36 33 40 40 34 50 60 66 75 86 89 91 91 92 86 84 88 86 86 81 80 77 80 81 82 82 83 90 94 84 85 86 84 84
100 99 93 57 51 57 58 53 50 52 48 47 40 51 52 56 62 71 76 82 84 90 91 87 82 80 83 84 79 78 78 80 82 82 76 76 84 84 75 77 87 88 91 94
85 77 60 60 61 69 66 65 62 60 54 57 57 53 60 64 67 68 73 77 77 81 82 81 75 73 78 83 78 80 82 86 86 79 77 70 80 80 77 75 83 89 87 92
72 54 55 54 52 49 58 54 50 57 54 56 54 53 60 65 66 69 73 73 76 76 77 81 77 74 77 78 77 79 79 75 72 70 65 66 66 71 78 85 83 84 86 91
71 60 56 55 55 49 46 47 53 48 54 52 51 58 60 65 64 62 67 68 69 72 74 79 75 77 74 73 71 68 63 60 62 64 69 71 71 76 80 86 84 85 86 86
79 61 62 58 39 42 52 44 42 53 60 56 52 54 60 65 62 62 67 72 74 78 78 78 74 74 73 65 60 59 58 64 73 75 76 62 58 70 78 81 79 79 79 86
69 62 65 48 43 46 52 58 55 57 60 58 56 59 64 73 70 76 72 76 76 74 73 72 72 71 65 61 58 61 66 67 72 70 73 70 68 70 81 81 70 68 74 76
78 76 69 60 50 63 59 60 62 58 60 62 64 62 69 71 70 73 78 70 61 59 61 64 65 69 63 59 64 71 70 73 71 75 77 81 86 90 88 88 93 92 78 79
80 76 76 73 68 63 62 63 66 70 74 77 73 74 71 74 73 68 59 52 51 53 55 58 66 68 64 68 67 71 72 81 88 92 92 92 91 92 93 95 96 96 95 90
81 80 80 82 80 78 75 77 81 88 79 77 76 74 71 68 68 68 66 64 71 74 68 76 72 77 79 82 88 89 90 94 93 92 93 94 95 95 95 95 96 95 94 92
92 94 92 89 90 90 88 84 84 82 82 80 80 76 72 71 71 73 75 78 86 89 87 89 94 92 94 93 93 94 94 94 94 94 95 96 96 96 96 96 96 96 97 97
84 84 86 88 92 92 91 89 88 87 88 84 85 88 90 89 85 86 90 89 92 95 95 96 96 96 96 96 96 96 96 96 95 96 95 96 96 95 96 96 96 96 96 88
89 93 93 90 90 90 90 91 90 89 89 88 91 94 92 92 92 94 94 94 95 94 97 96 96 95 95 96 95 95 95 95 95 94 95 96 96 96 96 97 96 96 94 96
86 86 85 87 89 92 93 92 90 91 91 90 90 91 94 95 95 95 93 95 96 95 95 95 94 94 95 95 94 93 94 95 95 96 96 96 97 97 97 96 96 97 97 97
95 95 95 95 95 96 96 96 95 95 96 95 94 95 95 96 95 94 92 91 96 95 94 94 92 93 93 93 90 95 95 96 96 96 96 97 97 96 97 97 98 98 98 98
96 96 96 96 95 95 96 96 95 95 95 95 95 94 93 95 94 94 95 93 94 94 92 92 91 94 93 94 92 94 93 94 95 95 96 96 97 98 98 98 98 99 98 98
95 96 95 95 95 96 95 95 95 94 94 94 95 95 94 95 95 92 93 94 92 94 91 94 94 94 94 94 93 93 94 94 95 96 97 97 98 98 97 97 98 99 99 100
96 96 96 96 92 86 92 95 94 94 94 94 95 95 91 92 95 92 92 93 91 89 93 94 94 92 89 93 95 96 97 97 98 100 99 100 100 100 100 100 100 100 99 99
94 94 94 92 90 93 92 92 90 91 90 91 92 92 90 89 92 94 92 90 89 92 94 91 90 90 94 96 96 97 100 100 100 100 100 100 100 100 100 100 100 100 100 100
92 92 92 92 92 90 90 86 91 91 86 92 92 94 94 93 92 92 93 92 92 92 94 94 94 94 96 97 98 100 100 100 100 100 100 100 100 100 100 100 100 100 100 100
90 88 82 85 86 87 87 87 91 94 93 94 95 95 94 94 93 92 93 95 95 95 95 97 98 99 98 100 100 100 100 100 100 100 100 100 100 100 100 100 100 100 100 100

GFSNGP_sfc_rhum_069.txt.gz
RH
70 57 41 35 34 33 34 39 50 39 50 39 37 35 34 34 38 32 32 41 49 51 58 59 64 64 64 68 78 77 77 78 79 84 85 93 96 98 99 99 98 98 98 99
86 54 42 40 32 36 38 37 38 40 49 43 37 39 39 37 34 31 31 36 46 54 82 87 81 75 70 74 81 79 83 85 91 98 98 97 98 99 98 98 98 98 98 98
95 76 69 72 48 34 30 39 40 49 44 36 40 38 38 34 35 32 30 30 48 55 78 86 91 92 84 87 88 87 89 97 98 98 98 99 98 98 98 98 98 98 98 98
98 87 97 63 40 33 36 31 36 39 38 36 36 34 32 37 34 34 31 31 38 53 81 92 98 95 98 96 94 96 97 97 98 98 98 97 97 97 98 98 98 98 98 96
98 88 73 50 46 45 44 39 34 36 32 28 29 38 32 32 36 33 32 28 32 44 80 97 98 94 94 96 96 96 97 97 95 95 96 95 96 97 96 97 98 96 94 93
99 97 89 44 48 35 40 56 37 28 34 39 38 49 44 31 41 39 40 62 85 95 96 97 98 96 97 98 98 98 95 93 91 90 91 93 94 94 93 92 94 91 87 89
98 96 87 65 49 52 82 67 50 45 45 35 40 42 35 43 46 59 76 87 94 95 94 95 96 96 98 97 98 92 90 88 88 87 88 88 90 91 91 94 88 89 87 83
98 100 89 65 70 91 71 68 69 60 61 63 59 53 52 51 55 75 86 95 94 95 97 97 93 93 96 96 88 86 84 84 86 86 85 86 92 91 90 92 93 89 91 89
86 79 61 56 73 71 77 73 68 65 62 62 57 54 58 64 69 75 89 94 95 96 98 95 92 90 94 93 87 88 86 86 86 85 87 85 85 85 91 93 90 88 84 90
84 59 59 48 52 59 61 60 57 58 59 63 64 62 59 61 69 72 85 91 91 93 95 94 89 87 87 85 86 89 89 86 83 79 78 79 76 77 87 92 90 86 88 91
57 49 55 55 54 51 51 52 53 54 50 50 58 55 66 63 68 71 79 82 84 88 89 88 84 87 86 86 83 84 79 72 72 74 74 78 78 76 81 83 82 85 87 87
84 81 91 51 51 50 55 53 51 56 56 52 55 54 58 57 67 71 77 83 84 87 86 86 84 85 83 76 71 73 74 73 79 76 73 70 72 78 84 86 85 83 84 87
95 85 87 79 57 56 52 54 58 61 62 60 56 50 44 64 72 81 80 85 87 86 84 81 79 76 73 73 69 73 76 74 76 70 68 68 69 73 85 80 76 78 78 78
79 88 89 85 88 75 69 67 68 70 75 76 77 70 73 78 79 76 75 70 69 71 72 72 72 74 70 65 66 71 71 76 73 72 73 78 80 83 83 87 93 93 84 83
83 82 89 89 82 84 82 81 82 80 78 78 72 72 70 70 67 66 63 64 68 72 75 75 79 81 75 76 75 78 78 84 89 93 94 94 94 94 93 94 95 96 96 95
82 82 82 90 90 89 86 86 86 88 81 78 77 74 74 77 79 81 80 78 87 93 92 95 94 90 85 82 85 89 92 95 95 95 96 96 96 96 96 96 96 97 97 96
95 93 91 94 92 92 93 90 86 86 86 83 79 76 77 82 85 87 89 88 92 94 92 92 96 93 94 95 95 95 95 95 96 95 95 95 96 95 96 96 96 96 97 97
83 84 86 89 91 90 90 89 87 85 87 84 84 88 91 92 92 92 92 89 90 94 95 96 96 96 96 96 96 95 94 94 94 95 94 94 94 94 95 96 96 95 96 95
82 85 86 84 88 90 91 90 89 91 92 88 90 94 93 93 92 95 94 94 94 93 96 95 95 95 95 96 94 94 94 94 94 94 94 94 95 95 95 96 96 96 96 96
84 86 86 87 86 84 88 91 93 93 94 94 94 94 94 95 95 94 92 95 96 96 95 95 94 94 94 94 94 92 94 94 93 94 95 94 96 96 96 95 95 96 97 96
94 93 94 93 95 95 95 95 94 95 96 94 93 94 95 95 95 94 93 92 96 95 94 94 93 94 93 92 90 93 94 94 94 94 95 96 96 95 96 96 98 98 99 99
95 95 95 94 92 95 95 95 94 94 94 94 94 94 93 95 94 94 95 94 94 94 92 93 92 94 91 88 87 92 90 91 93 93 95 95 96 97 98 99 99 99 100 100
96 95 94 93 93 95 93 94 94 94 94 94 94 94 94 94 93 91 93 94 92 93 90 93 89 89 90 93 94 94 94 95 96 96 96 98 98 99 99 100 100 100 100 100
95 95 95 95 88 84 92 95 93 94 95 94 94 95 90 92 94 91 92 92 90 89 91 92 94 93 91 95 95 96 96 97 98 99 99 100 100 100 100 100 100 100 100 100
94 95 94 92 89 92 91 92 88 88 87 90 91 90 88 84 91 94 93 94 93 92 95 94 95 94 96 96 98 100 100 100 100 100 100 100 100 100 100 100 100 100 100 100
91 90 90 92 91 88 88 84 90 90 86 93 93 94 94 93 92 93 95 94 92 93 96 96 97 97 99 99 100 100 100 98 100 100 100 100 100 100 100 100 100 100 100 100
89 87 84 86 87 88 87 87 93 96 95 96 96 95 94 95 94 94 96 96 98 98 99 99 98 99 100 100 100 100 100 100 100 100 100 100 100 100 100 100 100 100 100 100

GFSNGP_sfc_rhum_072.txt.gz
RH
80 71 66 67 61 48 42 40 49 49 41 39 35 32 30 33 38 38 35 34 46 65 64 73 74 71 70 76 78 77 76 75 75 75 73 82 92 92 92 92 92 94 98 99
89 73 65 68 61 48 44 42 40 42 42 34 33 35 37 35 35 38 35 33 37 49 60 70 74 75 73 77 80 78 79 79 76 78 78 84 92 92 93 96 97 98 99 98
88 80 69 74 66 55 48 41 42 48 44 36 39 42 41 39 40 40 38 34 36 40 49 59 64 76 78 76 83 83 82 80 82 83 85 90 94 98 98 98 99 99 99 98
96 88 94 53 57 41 56 48 39 36 40 34 35 35 38 39 38 39 39 36 35 37 52 72 90 92 90 89 88 89 88 87 86 92 96 99 99 99 99 99 99 98 99 98
98 94 70 53 36 49 52 50 38 47 38 34 32 39 34 34 41 40 40 39 38 36 47 78 93 98 97 96 94 92 90 95 96 97 98 98 99 99 98 98 98 98 98 98
99 100 93 53 42 45 48 52 49 58 52 42 37 50 47 32 38 39 43 43 41 55 91 93 97 96 98 98 97 97 98 97 97 97 98 98 98 98 97 96 98 97 98 97
99 97 84 66 65 59 83 61 81 70 67 66 48 43 43 53 50 52 68 71 86 92 92 94 93 92 97 97 98 96 96 95 96 95 96 94 96 96 96 95 94 96 96 94
95 98 94 60 75 79 78 74 74 68 75 72 70 64 59 59 64 67 79 91 95 96 98 98 93 94 97 98 96 93 93 94 95 94 92 91 96 97 94 94 95 96 95 93
86 83 66 66 63 64 73 53 63 68 67 72 67 66 66 66 69 80 89 96 97 98 98 98 97 96 95 97 92 91 91 94 95 94 94 92 95 97 96 94 94 94 91 90
80 54 58 51 58 60 68 67 58 56 65 60 62 63 65 69 69 75 83 91 95 97 99 99 96 96 94 95 90 90 93 94 93 95 93 91 92 93 94 94 92 89 88 86
65 56 71 55 56 60 60 60 64 63 60 59 59 56 59 70 74 72 77 89 93 96 97 96 95 95 94 94 92 92 88 84 88 86 85 88 89 89 92 90 86 86 86 85
83 97 92 91 83 81 81 70 61 64 61 59 68 64 58 51 71 74 84 89 93 92 91 93 95 95 93 87 84 85 87 84 89 90 87 84 86 91 91 89 88 85 82 87
84 88 89 89 88 83 88 79 78 76 76 77 78 82 78 72 84 88 81 82 84 85 84 83 83 81 80 84 84 86 89 84 83 82 80 80 81 85 93 94 95 96 96 96
79 88 92 90 94 82 80 80 74 70 73 74 73 69 70 72 72 74 77 77 75 76 79 79 80 83 79 76 80 86 88 90 91 94 94 93 95 95 95 95 96 96 94 92
82 81 88 82 84 82 78 78 79 84 82 80 79 81 81 85 86 86 83 84 85 89 90 89 88 90 85 86 86 88 89 91 93 95 96 96 96 96 96 95 95 95 96 96
82 83 83 89 88 85 84 85 88 90 86 82 86 86 86 86 87 88 86 85 91 96 93 96 95 92 86 85 90 93 94 96 96 96 96 96 96 96 96 96 96 96 96 96
93 93 95 95 91 90 90 86 84 86 84 84 86 84 81 82 82 84 87 86 90 94 92 92 96 95 95 95 95 95 95 94 95 94 94 95 95 95 95 95 95 95 96 97
87 86 86 87 89 88 86 84 83 82 86 84 84 88 92 92 91 92 94 91 90 92 94 96 95 95 95 95 94 94 94 94 94 94 94 95 95 94 95 95 95 94 96 95
89 90 90 88 88 86 85 86 88 89 93 92 89 94 94 95 94 95 94 93 93 92 96 95 95 94 95 95 93 93 93 93 93 93 93 93 94 93 94 95 95 96 95 95
86 88 87 86 85 83 88 91 91 92 94 93 92 92 94 95 95 94 92 94 96 96 95 95 94 94 94 94 91 90 91 92 91 93 94 93 94 96 95 94 95 96 97 98
95 94 94 93 94 94 95 95 93 94 95 94 92 94 94 95 95 94 92 91 96 95 94 93 91 91 88 86 85 92 92 93 94 94 95 96 95 95 96 97 98 99 100 100
95 94 95 95 94 95 95 95 94 94 94 94 93 93 92 94 94 94 95 94 94 93 89 89 88 90 86 86 86 91 90 92 94 94 95 95 96 98 99 99 100 100 100 100
95 95 95 94 95 95 94 94 94 94 94 94 94 94 94 94 94 91 92 93 88 86 86 92 91 91 91 92 93 94 94 94 96 97 98 99 100 100 100 100 100 100 100 100
95 95 95 95 93 86 91 95 94 94 94 94 95 95 91 92 94 88 86 89 91 92 94 94 95 95 93 95 96 96 96 98 99 100 100 100 100 100 100 100 100 100 100 100
95 94 94 93 91 93 92 93 91 92 91 91 92 88 87 85 92 95 94 93 94 92 95 96 98 97 98 99 99 100 100 100 100 100 100 100 100 100 100 100 100 100 100 100
92 92 92 93 92 90 90 87 91 89 86 93 94 95 96 94 92 92 93 92 90 91 96 99 100 99 100 100 100 100 100 99 100 100 100 100 100 100 100 100 100 100 100 100
92 91 88 88 86 84 87 88 93 97 96 96 96 96 94 96 97 96 99 98 98 99 100 100 100 100 100 100 100 100 100 100 100 100 100 100 100 100 100 100 100 100 100 100

GFSNGP_sfc_rhum_075.txt.gz
RH
66 47 50 57 61 56 58 52 53 42 35 32 29 28 27 27 28 28 30 31 29 38 51 58 63 64 66 71 74 72 72 72 75 75 74 71 72 72 72 73 72 70 78 92
78 54 45 60 56 42 51 49 43 39 39 28 25 26 32 29 28 27 29 29 28 31 40 55 64 63 65 68 72 71 71 72 69 70 70 74 74 76 74 76 74 75 80 89
77 69 68 66 48 48 40 41 43 49 39 30 29 31 36 33 31 31 30 31 31 30 35 45 55 65 66 64 68 71 70 68 67 67 68 71 69 71 76 80 84 89 90 95
90 87 83 40 41 45 47 43 37 38 34 35 31 29 26 30 32 34 33 33 34 32 36 36 44 56 60 60 68 71 69 67 67 69 69 67 72 76 84 90 94 98 98 98
94 85 58 38 30 37 48 39 60 52 56 51 46 38 33 31 35 35 35 35 36 33 32 35 44 51 64 66 67 71 72 72 69 71 73 87 91 96 98 98 99 98 98 99
98 90 83 45 40 51 40 58 60 62 65 65 47 59 45 43 50 44 37 37 37 37 36 40 56 66 63 65 70 73 74 74 75 82 97 98 98 98 98 98 99 99 99 98
89 92 71 56 48 56 61 53 54 55 54 61 58 52 50 53 53 55 57 68 71 64 59 63 74 74 75 78 80 75 87 92 93 91 96 96 98 98 98 97 97 98 98 97
85 89 83 50 58 58 50 59 57 44 47 60 60 60 51 50 54 56 66 78 80 80 88 85 80 78 83 89 92 89 90 94 96 96 97 97 97 96 94 95 97 97 97 97
72 66 55 56 53 45 55 57 53 51 45 44 57 56 56 51 53 52 59 75 83 89 92 90 87 83 93 96 91 93 95 97 97 96 95 94 95 97 97 94 96 97 94 95
72 52 53 47 47 66 71 75 69 63 57 52 60 61 58 55 55 52 58 70 80 88 90 96 92 87 90 89 90 93 97 96 95 96 97 94 93 93 94 96 95 93 92 92
65 52 65 47 71 77 77 72 71 67 62 62 64 58 54 58 58 62 68 77 80 85 92 93 89 92 89 89 89 92 91 90 92 90 90 93 95 95 96 97 92 91 91 89
61 85 88 80 74 78 78 80 72 68 67 66 71 75 74 76 75 74 78 80 80 87 88 88 88 89 88 84 82 86 90 89 92 92 92 90 91 96 96 93 93 93 92 93
83 80 81 82 76 75 78 75 70 69 68 70 68 68 69 70 70 77 74 74 80 82 84 78 81 83 83 83 82 85 88 88 88 86 87 88 88 88 93 97 97 97 96 96
76 82 86 80 89 75 74 71 71 67 68 73 74 73 75 78 79 83 85 83 81 84 85 85 91 96 99 89 88 90 90 93 90 91 89 89 89 92 93 93 95 96 96 93
76 78 93 83 80 76 74 72 73 79 79 79 78 83 81 86 87 88 83 81 80 83 86 87 92 97 97 98 96 96 94 94 94 95 96 96 94 95 95 95 92 90 91 92
75 74 83 89 87 84 82 84 82 81 79 79 80 81 79 78 79 80 80 80 84 89 87 92 91 95 94 89 87 89 92 96 95 95 96 95 95 94 91 90 89 88 88 89
84 83 85 90 94 93 92 94 90 82 80 80 81 75 73 75 76 80 84 84 88 93 93 92 96 94 95 95 95 94 94 94 94 93 93 91 90 89 87 86 86 87 90 92
77 82 88 90 91 91 91 90 87 82 82 82 84 88 91 90 89 91 93 90 89 91 94 95 95 95 95 95 94 94 93 93 92 92 91 91 89 84 85 85 85 84 87 87
81 83 86 89 90 89 91 89 88 87 90 91 92 94 95 95 94 95 94 93 92 91 96 95 94 94 94 95 91 91 91 90 87 88 86 86 88 86 88 88 87 87 84 85
83 84 82 84 81 83 87 89 91 91 92 91 93 93 94 95 94 94 92 94 95 93 94 94 93 93 94 92 88 84 87 89 86 91 93 88 90 91 88 84 84 86 87 86
92 92 92 89 93 93 94 95 93 94 95 93 92 94 94 95 94 94 92 90 96 94 92 92 89 90 87 85 82 90 90 90 90 87 87 88 88 86 88 88 88 89 90 89
93 94 95 94 94 95 95 94 93 94 93 93 94 94 92 94 94 94 95 93 91 92 85 82 80 84 77 78 77 87 81 81 84 84 85 86 86 87 88 88 89 91 91 91
95 94 94 94 94 95 94 94 94 93 94 94 94 94 93 93 92 91 91 90 79 81 78 86 86 85 84 89 88 87 85 86 87 87 88 89 88 88 87 88 88 87 86 84
94 94 94 94 92 87 91 94 92 93 94 94 94 94 88 92 93 81 78 82 86 88 90 89 90 89 84 88 89 90 89 90 90 90 90 90 90 88 87 88 86 86 86 87
93 94 93 93 89 91 90 91 89 89 86 86 85 83 84 80 89 88 86 85 86 83 89 93 94 92 90 90 89 89 90 90 92 91 90 91 91 90 88 87 89 89 89 89
92 89 89 91 90 87 85 79 84 81 79 89 90 92 91 85 82 79 83 82 83 86 91 93 93 90 90 90 91 91 89 86 89 90 90 89 88 86 88 88 90 91 92 92
87 88 85 82 77 78 79 80 86 89 88 91 93 88 86 88 88 84 92 91 93 95 96 96 94 94 91 91 91 92 91 92 97 90 90 90 89 91 92 92 92 92 92 92

GFSNGP_sfc_rhum_078.txt.gz
RH
51 47 40 43 43 40 42 44 55 38 32 25 21 20 19 19 19 18 16 16 17 22 30 36 42 44 46 50 56 56 56 55 58 60 58 58 60 59 58 58 54 53 60 59
39 34 29 33 30 31 32 30 33 36 35 24 23 20 21 21 22 20 18 17 17 17 18 29 37 42 46 49 54 56 58 58 55 56 57 58 58 61 60 61 58 57 58 61
49 40 36 51 38 30 26 30 33 36 24 25 24 21 22 21 20 20 24 20 20 20 21 22 26 37 42 46 49 56 57 55 56 57 58 59 56 57 60 61 63 63 64 62
62 77 71 31 25 27 32 26 26 25 25 34 32 29 26 20 22 24 23 23 23 20 23 24 25 28 37 38 45 53 53 52 54 56 57 56 58 59 61 62 66 68 67 63
74 53 35 28 24 29 34 28 40 39 37 36 34 31 28 32 35 36 35 31 26 23 24 25 25 25 29 35 40 46 50 51 50 53 55 56 58 62 61 66 72 72 81 86
79 63 65 39 34 36 30 35 33 39 36 35 36 47 38 33 36 35 34 36 40 47 40 32 27 26 32 34 40 45 48 46 47 51 55 58 60 63 84 83 93 98 99 99
72 75 52 34 27 38 47 47 34 33 31 31 38 38 40 36 34 31 30 38 53 54 54 50 47 44 42 39 41 40 44 49 53 55 64 72 82 90 96 97 98 98 98 98
70 79 76 39 37 45 42 38 39 39 40 49 44 39 38 39 38 35 33 38 48 57 65 69 65 60 51 47 51 63 70 75 75 76 89 91 96 97 96 97 97 98 98 97
46 45 41 49 42 44 54 57 55 56 49 50 50 41 38 43 43 37 35 38 52 61 77 84 80 73 71 87 80 81 84 91 94 94 96 96 97 97 97 96 97 97 96 96
53 36 31 38 43 51 54 57 54 51 50 54 57 49 47 42 41 43 41 50 52 62 76 88 86 89 89 89 86 90 94 96 95 96 96 94 92 92 95 97 97 95 94 94
40 33 40 33 52 59 59 54 56 51 51 53 55 54 57 55 53 52 53 57 62 71 82 89 88 89 87 88 87 92 92 93 93 92 93 95 95 93 95 93 90 91 91 90
46 63 68 56 53 67 63 59 58 58 56 52 54 55 55 57 57 58 59 62 67 73 77 77 80 83 84 84 87 90 92 92 94 94 91 91 92 95 96 95 95 93 90 90
66 66 65 61 58 63 63 60 58 57 55 59 56 57 59 64 72 75 67 71 77 82 82 86 90 87 92 91 86 90 93 90 90 88 88 89 90 90 96 96 95 95 96 96
68 73 73 80 88 72 65 60 58 58 59 63 61 60 65 68 71 79 81 77 77 80 84 85 89 96 98 98 98 100 98 97 95 93 93 95 94 94 92 90 93 96 96 94
67 65 72 83 81 76 73 72 71 72 76 76 71 74 70 74 79 81 76 72 72 76 82 84 90 96 93 91 94 96 94 94 96 96 96 95 93 93 93 92 93 93 93 91
64 56 70 81 79 75 74 77 81 84 85 91 81 74 74 74 74 76 77 76 80 86 85 92 89 91 88 86 89 93 94 96 96 96 96 96 96 95 94 94 94 94 90 89
75 72 75 76 79 78 80 81 81 84 84 87 89 82 75 78 78 81 83 83 88 92 91 91 95 94 94 95 94 94 94 94 94 93 94 94 94 93 91 91 92 91 92 93
66 66 71 73 77 82 77 77 77 85 88 91 90 90 93 93 89 90 92 92 92 92 94 95 95 94 94 95 93 91 90 91 92 93 92 93 91 90 90 89 88 87 87 80
65 70 73 75 77 76 75 79 84 88 91 92 92 93 92 92 90 92 90 91 91 88 95 95 93 93 94 94 90 90 90 91 88 88 88 88 88 85 86 86 85 84 78 79
66 67 69 73 72 71 78 82 83 85 90 92 93 92 91 92 92 92 89 93 93 92 92 92 87 88 87 87 85 82 88 90 85 88 89 86 87 87 82 76 77 80 82 80
86 85 86 85 89 91 92 93 89 90 93 92 91 93 93 93 92 90 86 82 93 92 89 83 76 71 65 65 67 80 80 81 82 81 81 82 82 78 80 80 79 79 80 79
90 91 92 92 91 92 93 93 92 92 92 92 92 92 91 92 91 89 89 84 76 72 66 67 69 76 65 67 66 77 71 73 76 77 78 79 79 80 80 79 80 80 79 79
92 92 92 92 92 93 92 92 93 91 92 92 92 92 90 88 80 79 81 74 65 70 64 76 77 76 74 79 79 79 78 78 79 79 80 81 81 81 80 79 79 79 80 78
92 92 92 92 91 88 90 92 91 91 92 92 92 85 73 80 81 67 65 72 76 80 84 84 82 77 73 81 81 81 80 80 80 80 78 75 81 79 78 79 78 78 79 78
92 92 91 92 89 88 89 90 86 83 76 75 75 70 70 67 81 77 76 76 76 71 79 82 79 76 80 81 80 80 81 82 81 80 80 80 80 80 80 79 80 81 81 80
89 86 86 90 87 83 77 66 72 69 69 80 80 83 81 75 71 70 75 73 73 73 78 82 83 79 80 78 80 79 78 74 78 78 78 78 78 78 80 79 81 81 82 83
85 87 81 73 65 67 67 68 76 79 78 84 84 80 76 78 78 71 76 79 80 80 81 81 81 79 77 78 77 76 76 78 88 78 79 80 80 81 82 83 83 84 83 83

GFSNGP_sfc_rhum_081.txt.gz
RH
44 42 35 38 36 33 34 34 44 36 32 24 21 19 17 17 17 18 17 16 14 14 18 26 31 33 36 40 48 49 47 46 51 57 56 55 57 57 58 60 58 56 57 57
43 33 32 32 28 29 29 30 29 27 27 20 19 18 20 19 18 18 18 17 15 16 14 17 26 32 34 38 42 47 51 52 48 52 55 58 58 59 59 59 57 56 57 57
50 35 39 51 33 28 25 23 25 32 27 20 21 22 23 23 21 19 18 18 20 20 19 17 16 26 33 36 38 44 49 49 49 50 54 57 55 55 58 61 61 61 60 57
57 51 64 30 20 21 25 22 23 25 22 22 23 24 22 27 32 33 30 29 27 25 24 20 19 19 24 29 37 41 45 46 47 50 51 52 54 56 60 62 65 64 64 62
63 47 31 22 20 21 24 23 27 27 26 26 26 26 28 29 30 32 30 28 28 27 30 32 29 23 21 25 30 37 43 45 44 46 50 51 55 59 59 61 65 67 64 66
60 62 56 27 22 21 23 34 29 30 30 29 26 35 30 28 29 31 29 28 29 33 35 36 37 36 28 24 25 32 40 42 41 44 49 54 56 58 59 63 67 71 77 93
65 62 39 36 26 28 46 46 36 32 33 36 39 34 32 27 26 27 28 28 30 36 43 50 50 50 48 40 35 30 30 37 42 44 51 51 54 57 62 78 94 97 97 97
68 82 72 24 26 42 50 40 38 38 39 44 42 38 33 27 27 30 28 27 30 40 52 66 65 62 56 50 61 63 56 40 45 45 48 59 62 86 90 96 98 98 98 98
43 41 36 41 52 44 45 46 45 45 40 43 45 44 41 38 33 33 31 34 39 43 55 71 79 82 85 83 77 75 78 85 88 91 92 93 95 96 97 97 98 98 98 97
72 42 42 54 48 45 44 46 44 42 42 45 49 46 45 43 44 41 37 42 49 60 72 77 78 81 86 88 87 90 94 95 94 95 95 94 95 96 98 99 98 97 96 97
37 38 30 35 45 54 46 44 46 45 46 48 48 48 47 46 48 47 45 49 55 69 78 82 81 84 81 87 87 92 93 93 95 94 94 95 96 97 98 98 96 95 95 94
56 60 58 48 48 56 50 52 51 52 51 49 49 50 50 50 54 57 59 63 63 73 80 82 83 86 89 84 85 90 93 94 97 96 95 93 92 95 96 97 96 94 93 92
68 56 55 56 65 67 66 58 53 52 52 56 53 51 53 55 61 68 64 70 74 81 83 85 89 89 89 92 91 90 93 93 94 94 92 92 89 87 93 96 96 95 96 96
55 57 58 60 80 70 67 63 61 59 63 64 65 60 58 59 63 66 71 72 72 76 80 82 86 95 94 90 91 98 100 98 97 97 96 94 93 94 94 94 96 96 97 96
54 53 60 64 65 61 56 57 62 70 73 77 74 77 76 77 73 76 75 71 69 75 79 82 87 94 93 93 93 93 91 94 96 96 97 96 95 95 94 93 94 95 95 95
52 48 55 60 61 60 59 62 65 71 70 68 73 75 74 83 88 82 80 82 82 86 83 90 89 94 92 90 92 94 95 95 94 95 96 96 95 94 94 94 95 94 94 94
61 64 64 68 68 71 69 70 72 74 69 69 74 72 73 79 86 88 88 86 89 93 90 90 95 93 93 94 92 93 93 93 94 94 94 95 94 94 94 93 94 94 95 96
55 59 62 66 70 71 70 70 70 72 78 81 84 88 92 92 93 93 94 92 90 91 94 95 95 94 94 94 93 92 92 92 90 91 92 92 91 90 93 93 91 92 93 92
58 63 68 74 78 75 74 75 77 77 84 89 91 94 94 94 92 94 93 88 88 87 94 92 92 92 92 94 83 84 89 89 86 85 86 90 93 91 92 92 91 91 88 86
66 68 68 72 76 73 81 84 86 87 90 91 92 91 91 94 94 94 93 94 93 92 91 90 86 84 82 80 74 74 85 88 81 84 86 85 88 88 82 76 77 79 80 78
80 80 85 85 88 88 91 92 92 92 93 92 91 91 91 91 93 92 88 84 84 72 68 68 67 58 54 54 57 73 75 76 77 76 77 79 78 75 77 76 77 78 79 77
86 88 90 90 91 92 92 93 92 93 92 92 93 93 91 91 91 87 82 75 66 65 61 63 64 70 60 64 61 73 68 70 73 75 77 78 78 79 79 77 78 79 79 79
88 88 90 91 91 92 92 92 92 91 92 92 92 91 89 79 70 73 76 70 64 68 63 73 72 71 70 76 76 76 75 75 76 77 78 79 79 79 78 78 78 78 79 76
88 88 90 90 89 87 89 92 90 91 92 90 85 83 69 76 77 63 61 65 70 76 80 78 76 72 71 79 79 79 78 78 78 78 75 73 79 77 77 78 76 77 77 74
87 89 89 90 86 85 88 88 85 79 68 67 67 63 63 61 78 73 72 72 69 68 75 72 71 71 78 78 78 78 80 81 80 78 77 78 78 78 78 77 79 79 78 77
84 78 79 86 82 74 74 69 67 62 62 72 73 77 75 70 67 67 71 68 68 68 74 78 80 77 77 75 76 76 76 73 75 74 75 76 75 75 77 76 77 78 79 80
79 81 73 68 60 59 58 59 67 70 71 77 76 71 68 72 72 66 70 73 74 74 75 76 76 74 73 75 74 73 72 74 84 76 76 77 76 78 79 79 80 79 79 79

GFSNGP_sfc_rhum_087.txt.gz
RH
50 44 82 86 93 80 87 77 96 65 70 64 66 61 46 32 31 36 35 34 34 34 38 41 56 62 59 65 66 61 62 74 83 80 78 77 75 79 80 79 77 73 70 68
58 40 38 69 61 67 74 84 77 73 74 67 45 41 37 42 41 41 40 39 41 43 43 44 46 49 61 64 66 64 60 60 69 79 79 80 79 79 79 80 83 77 75 73
71 48 46 69 52 61 61 58 55 82 65 36 42 51 47 51 44 43 43 43 46 48 61 64 66 63 67 66 66 67 64 60 58 70 75 76 77 78 79 80 79 85 83 78
78 61 81 51 35 33 36 43 40 56 52 50 53 45 43 45 43 44 42 44 48 66 70 72 73 75 70 61 64 72 73 66 62 60 70 74 73 74 78 81 80 80 82 82
87 78 51 34 28 32 34 56 55 58 58 49 44 44 51 46 38 37 41 47 70 74 77 77 78 78 76 82 80 82 83 84 78 70 68 69 74 76 74 76 80 81 80 80
87 84 80 47 31 30 38 74 51 54 61 55 54 80 67 50 51 53 65 75 76 76 75 78 77 76 79 85 83 84 83 83 85 88 83 75 74 72 76 76 74 74 80 84
86 94 73 40 35 35 60 81 60 53 55 55 62 66 55 50 49 49 53 59 64 70 79 79 74 74 80 82 86 81 80 82 84 86 89 94 92 81 83 84 86 90 97 99
90 90 83 47 43 65 76 61 55 58 62 65 61 57 55 56 55 57 60 64 67 74 77 73 73 77 83 87 80 79 81 83 83 86 85 88 95 97 98 98 99 99 99 99
70 72 86 79 73 72 56 61 60 63 59 59 62 60 57 61 61 61 65 69 69 73 74 75 76 78 87 86 81 81 82 86 85 84 85 87 94 96 96 98 99 99 99 98
73 90 89 89 78 54 60 59 55 57 60 61 64 62 62 63 64 66 69 72 71 73 77 80 78 80 84 85 82 82 87 89 86 88 87 87 87 91 95 97 98 97 96 96
93 92 90 90 88 75 59 57 56 56 62 66 65 65 65 68 68 68 70 69 70 76 79 81 79 82 83 83 85 83 87 89 91 90 86 89 93 95 94 98 98 95 96 95
99 98 94 94 78 63 65 65 62 67 69 66 67 68 61 68 68 68 71 70 73 76 78 79 81 84 86 84 84 88 92 92 94 91 91 89 88 92 96 96 96 96 94 91
95 90 75 71 64 58 62 64 65 70 70 72 69 71 69 74 72 74 71 74 78 80 81 82 84 86 88 90 86 89 91 91 89 88 88 89 92 92 93 94 94 97 98 97
57 69 69 64 68 61 61 60 64 64 65 69 68 68 71 76 75 77 83 79 77 80 83 85 86 93 95 94 93 93 93 92 93 94 94 94 92 94 94 93 93 95 96 97
63 60 64 61 60 64 65 69 70 75 75 77 72 75 75 77 80 84 81 73 73 78 84 86 89 95 94 95 95 97 96 95 94 94 95 94 94 95 95 95 95 96 95 94
56 61 63 70 72 72 70 74 81 86 84 83 79 83 83 84 84 86 87 84 85 91 91 92 91 95 93 92 94 93 95 94 90 92 92 93 93 93 92 92 94 94 94 95
77 80 77 78 85 86 85 82 84 86 84 87 91 91 90 82 83 86 90 90 92 94 94 93 96 94 92 93 94 95 95 95 94 93 93 93 93 93 93 92 93 94 95 95
72 80 82 89 89 85 83 82 82 82 88 87 88 90 92 92 93 94 94 93 92 91 94 95 95 95 95 94 94 94 94 95 94 94 92 93 94 92 93 92 92 92 94 94
73 77 81 85 86 87 87 88 90 87 92 93 91 94 94 94 94 95 94 92 92 91 95 95 94 94 95 95 94 93 93 94 94 93 93 93 94 93 94 94 93 93 91 92
78 77 77 80 80 78 85 87 87 92 95 94 94 93 95 96 95 94 93 95 96 96 95 95 94 93 93 93 94 92 93 94 89 90 90 90 93 94 93 93 94 96 96 95
94 94 95 94 96 95 96 95 92 95 96 94 93 95 95 95 94 95 93 92 92 86 86 85 85 76 72 74 77 88 90 91 92 93 93 94 94 94 95 95 95 96 95 95
97 97 97 96 95 96 96 95 94 94 94 95 95 95 95 95 89 88 90 91 84 82 84 85 83 87 85 82 82 88 88 89 92 92 93 93 95 96 97 95 97 97 96 99
96 95 95 95 96 96 95 94 95 94 94 95 95 93 88 85 84 88 91 82 79 83 82 88 87 86 86 90 93 94 92 92 94 95 96 97 96 96 97 97 99 97 100 100
98 97 98 96 96 90 95 98 93 93 90 86 88 90 86 92 92 84 86 85 87 89 94 91 88 87 92 94 91 92 92 95 96 97 97 98 97 98 98 98 98 100 100 98
96 96 95 94 93 94 94 94 93 89 82 80 81 76 74 78 95 92 94 89 87 86 90 86 93 92 95 95 97 98 98 98 97 98 98 100 100 99 100 100 100 100 100 100
94 95 96 96 96 96 96 91 89 85 85 92 92 96 95 94 93 94 95 92 94 93 95 96 93 95 96 95 97 95 95 94 96 98 100 100 99 99 100 100 100 100 100 100
96 95 92 87 79 85 89 92 93 96 95 95 96 97 95 96 94 94 94 96 96 98 98 98 97 96 97 98 98 98 99 99 99 100 100 100 100 100 100 100 100 100 100 100

GFSNGP_sfc_rhum_093.txt.gz
RH
68 68 63 76 78 74 84 94 99 87 76 77 78 86 87 87 82 72 68 68 71 79 84 84 86 85 86 91 90 90 92 91 94 94 94 93 91 89 88 86 82 80 78 77
70 59 65 70 47 43 66 75 85 92 93 62 80 84 88 87 87 76 76 76 77 81 84 86 86 87 86 87 89 88 89 91 90 93 94 92 94 91 91 89 86 84 84 81
77 60 55 59 54 51 68 64 77 96 73 65 82 84 83 88 86 89 84 83 81 82 82 84 86 86 88 86 82 86 86 86 89 90 90 90 87 89 92 91 90 90 88 85
88 66 75 42 30 69 67 80 73 68 76 79 80 79 86 89 91 91 86 85 83 82 82 80 79 77 78 77 79 80 83 82 83 85 88 89 90 89 89 90 93 92 91 89
88 77 51 44 46 57 61 62 70 81 80 77 80 83 91 82 83 84 83 83 79 76 76 76 76 73 73 75 74 78 81 82 82 83 87 89 93 95 90 89 90 91 90 92
93 88 80 59 61 56 64 91 73 80 84 80 68 93 91 83 83 81 76 74 76 74 76 78 77 77 76 79 78 81 79 78 76 79 82 88 92 94 95 96 95 89 89 90
89 84 76 54 77 66 78 84 74 75 85 91 91 88 78 69 73 71 72 73 70 72 77 79 78 78 82 83 84 77 75 76 76 76 77 82 86 88 92 95 97 97 96 96
93 93 90 81 76 86 84 78 76 76 78 83 78 73 71 68 70 72 74 72 69 72 75 76 76 79 83 88 79 75 76 82 84 85 84 82 88 90 90 93 96 98 97 97
81 80 86 83 87 82 78 81 78 76 72 69 72 72 70 73 75 73 71 70 68 71 74 75 78 81 88 85 79 79 80 86 83 84 87 87 92 94 95 92 95 96 96 96
96 94 93 93 86 81 82 87 79 72 71 69 74 73 74 72 73 74 70 72 69 72 77 80 79 81 86 82 80 82 85 84 84 87 89 90 88 90 93 97 95 95 95 96
100 98 96 96 95 95 95 76 79 82 81 74 71 75 77 77 75 75 74 70 72 77 80 82 80 84 85 82 81 82 86 86 88 86 86 88 93 95 93 96 94 96 95 95
99 100 99 100 97 94 95 93 72 71 72 72 72 76 75 80 76 76 79 77 78 79 80 82 82 86 88 83 83 85 87 88 91 91 90 87 86 90 90 93 94 95 95 93
100 100 100 100 90 81 79 73 68 70 69 73 71 73 74 80 78 78 76 78 82 83 83 83 84 86 90 90 85 87 91 91 90 90 90 91 91 91 94 89 86 90 92 89
98 98 92 91 90 72 70 70 72 70 70 72 72 71 72 75 75 77 79 76 77 80 82 84 86 94 94 92 90 93 94 94 95 96 96 95 94 94 94 95 95 95 91 93
94 77 81 75 72 73 71 72 78 80 77 77 73 74 72 77 80 82 79 70 71 77 85 87 90 95 95 93 94 94 94 95 95 95 95 95 93 93 92 93 94 94 91 88
70 70 73 82 80 77 75 76 78 79 80 77 77 77 77 78 82 84 84 83 85 92 92 94 92 95 92 91 92 92 93 93 93 94 94 94 94 93 92 92 92 94 93 95
74 76 75 83 83 79 79 78 80 83 82 82 84 79 76 77 80 84 90 89 92 94 93 94 96 94 94 95 96 96 96 94 92 92 94 94 93 94 93 93 93 94 95 95
79 82 82 85 84 80 78 76 77 80 87 88 90 91 94 95 95 95 96 92 90 90 94 95 95 94 94 95 95 96 95 95 94 94 93 94 94 94 94 93 93 93 95 93
75 80 80 78 82 80 80 82 86 86 92 93 93 96 96 96 96 96 94 93 94 93 95 95 93 93 94 93 93 93 93 94 93 93 92 92 94 93 94 94 94 94 92 93
76 73 74 79 80 75 84 88 88 93 95 94 94 95 96 97 97 96 95 96 97 97 95 94 92 92 92 91 91 90 93 94 92 95 95 94 96 96 95 93 93 95 96 96
95 94 96 95 98 97 98 99 96 99 99 97 96 98 98 98 96 96 95 95 96 95 92 90 92 91 87 86 87 94 94 95 96 97 96 97 96 96 97 96 97 97 97 96
97 98 100 98 98 99 99 98 97 98 98 99 100 100 98 98 97 97 98 97 94 92 90 90 89 93 89 91 89 94 92 93 95 95 96 96 97 98 98 98 99 99 99 99
98 97 97 97 98 100 98 98 98 98 98 98 99 98 98 98 98 97 97 92 91 92 88 94 92 91 92 95 95 95 95 95 96 97 98 99 99 100 100 100 100 99 100 100
98 97 99 98 97 95 97 98 94 95 98 97 98 98 93 99 99 92 90 91 94 97 98 96 96 96 94 96 96 97 98 98 99 99 99 99 100 100 100 100 100 100 100 100
96 97 98 100 98 97 94 96 94 94 91 91 89 82 85 90 97 98 97 95 91 93 96 97 98 98 96 97 98 100 100 100 100 100 100 100 100 100 100 100 100 100 100 100
98 98 98 97 96 95 93 92 93 90 88 98 99 100 99 99 96 98 98 98 96 94 96 99 100 100 100 98 98 100 100 98 100 100 100 100 100 100 100 100 100 100 100 100
98 96 97 97 92 94 95 95 96 96 97 99 99 100 100 100 100 99 100 100 100 100 100 100 100 100 100 100 100 100 100 100 100 100 100 100 100 100 100 100 100 100 100 100